AFR470 LFPG-FMEE

Flight info

Callsign AFR470
Flight time 10h 33m
Altitude 33000
Route LFPG/08L OKAS6H OKASI R28 OKEKO DCT PNZ DCT ARLOS DCT AST DCT JDW DCT XADOX DCT AVUSI DCT NIBAK DCT IXEBU DCT UVENA DCT UVENA UVEN2R FMEE/I14Y
Aircraft B77W/H-V/N

Departure

Time 2026-04-24 20:38
Airport Charles de Gaulle International Airport (LFPG)

Arrival

Time 2026-04-25 07:11
Airport Roland Garros Airport (FMEE)
Time Latitude Longitude Altitude Speed Heading
2026-04-24 20:09 49.00395 2.58984 358 ft 0 kts 84°
2026-04-24 20:23 49.00393 2.58963 364 ft 4 kts 85°
2026-04-24 20:23 49.00392 2.58923 358 ft 4 kts 91°
2026-04-24 20:23 49.00394 2.58893 358 ft 2 kts 104°
2026-04-24 20:24 49.00396 2.58880 358 ft 1 kts 120°
2026-04-24 20:24 49.00404 2.58865 363 ft 1 kts 153°
2026-04-24 20:24 49.00413 2.58859 365 ft 1 kts 167°
2026-04-24 20:24 49.00422 2.58857 364 ft 1 kts 173°
2026-04-24 20:25 49.00428 2.58856 362 ft 1 kts 174°
2026-04-24 20:25 49.00437 2.58854 366 ft 0 kts 175°
2026-04-24 20:27 49.00384 2.58861 364 ft 13 kts 175°
2026-04-24 20:27 49.00296 2.58871 366 ft 13 kts 175°
2026-04-24 20:28 49.00207 2.58883 358 ft 13 kts 175°
2026-04-24 20:28 49.00120 2.58894 363 ft 13 kts 175°
2026-04-24 20:28 49.00046 2.58846 366 ft 13 kts 249°
2026-04-24 20:28 49.00035 2.58712 359 ft 13 kts 262°
2026-04-24 20:29 49.00027 2.58623 361 ft 13 kts 267°
2026-04-24 20:29 49.00016 2.58399 366 ft 18 kts 265°
2026-04-24 20:29 49.00005 2.58206 360 ft 18 kts 265°
2026-04-24 20:29 48.99996 2.58013 359 ft 18 kts 265°
2026-04-24 20:30 48.99985 2.57819 364 ft 18 kts 265°
2026-04-24 20:30 48.99974 2.57626 365 ft 18 kts 265°
2026-04-24 20:30 48.99964 2.57435 359 ft 18 kts 266°
2026-04-24 20:30 48.99955 2.57241 359 ft 18 kts 265°
2026-04-24 20:31 48.99946 2.57047 365 ft 18 kts 265°
2026-04-24 20:31 48.99935 2.56853 359 ft 18 kts 264°
2026-04-24 20:31 48.99923 2.56660 360 ft 18 kts 264°
2026-04-24 20:31 48.99913 2.56466 364 ft 18 kts 265°
2026-04-24 20:32 48.99903 2.56273 365 ft 18 kts 265°
2026-04-24 20:32 48.99892 2.56080 359 ft 18 kts 265°
2026-04-24 20:32 48.99900 2.55890 361 ft 18 kts 284°
2026-04-24 20:32 48.99937 2.55721 364 ft 12 kts 291°
2026-04-24 20:33 48.99923 2.55589 367 ft 15 kts 243°
2026-04-24 20:33 48.99895 2.55435 359 ft 15 kts 264°
2026-04-24 20:33 48.99885 2.55274 365 ft 15 kts 265°
2026-04-24 20:33 48.99877 2.55113 364 ft 15 kts 265°
2026-04-24 20:34 48.99870 2.54956 364 ft 14 kts 265°
2026-04-24 20:34 48.99840 2.54842 366 ft 11 kts 213°
2026-04-24 20:34 48.99769 2.54850 363 ft 11 kts 151°
2026-04-24 20:34 48.99724 2.54935 364 ft 11 kts 119°
2026-04-24 20:35 48.99693 2.55029 366 ft 9 kts 115°
2026-04-24 20:35 48.99671 2.55101 365 ft 6 kts 115°
2026-04-24 20:35 48.99653 2.55156 364 ft 6 kts 115°
2026-04-24 20:35 48.99636 2.55210 365 ft 6 kts 115°
2026-04-24 20:36 48.99619 2.55265 365 ft 6 kts 117°
2026-04-24 20:36 48.99600 2.55322 363 ft 6 kts 116°
2026-04-24 20:36 48.99581 2.55392 366 ft 7 kts 105°
2026-04-24 20:36 48.99580 2.55444 361 ft 0 kts 85°
2026-04-24 20:37 48.99585 2.55553 363 ft 38 kts 86°
2026-04-24 20:37 48.99627 2.56335 367 ft 109 kts 85°
2026-04-24 20:38 48.99707 2.57830 360 ft 171 kts 85°
2026-04-24 20:38 48.99817 2.59875 485 ft 203 kts 83°
2026-04-24 20:38 48.99929 2.61922 1277 ft 191 kts 84°
2026-04-24 20:38 49.00029 2.63944 1900 ft 192 kts 84°
2026-04-24 20:39 49.00124 2.65953 2425 ft 188 kts 84°
2026-04-24 20:39 49.00290 2.67948 2745 ft 191 kts 84°
2026-04-24 20:39 49.00442 2.70015 2967 ft 202 kts 83°
2026-04-24 20:39 49.00565 2.72148 3365 ft 202 kts 87°
2026-04-24 20:40 49.00649 2.74293 3767 ft 204 kts 87°
2026-04-24 20:40 49.00718 2.76454 4115 ft 205 kts 95°
2026-04-24 20:40 49.00230 2.78527 4142 ft 218 kts 133°
2026-04-24 20:40 48.98933 2.79682 4371 ft 224 kts 170°
2026-04-24 20:41 48.97367 2.79516 4572 ft 233 kts 191°
2026-04-24 20:41 48.95740 2.78985 4857 ft 246 kts 191°
2026-04-24 20:41 48.94025 2.78437 5191 ft 257 kts 191°
2026-04-24 20:41 48.92215 2.77888 5460 ft 272 kts 190°
2026-04-24 20:42 48.90337 2.77363 5970 ft 277 kts 189°
2026-04-24 20:42 48.88412 2.76851 6488 ft 283 kts 189°
2026-04-24 20:42 48.86453 2.76348 7009 ft 288 kts 189°
2026-04-24 20:42 48.84447 2.75869 7506 ft 294 kts 188°
2026-04-24 20:43 48.82418 2.75377 8095 ft 296 kts 189°
2026-04-24 20:43 48.80401 2.74891 8682 ft 298 kts 188°
2026-04-24 20:43 48.78339 2.74417 9264 ft 301 kts 188°
2026-04-24 20:43 48.76237 2.73935 9762 ft 307 kts 188°
2026-04-24 20:44 48.74121 2.73451 10386 ft 307 kts 188°
2026-04-24 20:44 48.71967 2.72946 10652 ft 322 kts 189°
2026-04-24 20:44 48.69693 2.72404 10811 ft 340 kts 189°
2026-04-24 20:44 48.67288 2.71830 10964 ft 359 kts 189°
2026-04-24 20:45 48.65628 2.71435 11084 ft 370 kts 189°
2026-04-24 20:45 48.63051 2.70822 11518 ft 379 kts 189°
2026-04-24 20:45 48.60425 2.70200 12058 ft 385 kts 188°
2026-04-24 20:45 48.57759 2.69570 12652 ft 390 kts 188°
2026-04-24 20:46 48.55065 2.68934 13300 ft 393 kts 188°
2026-04-24 20:46 48.52349 2.68294 13968 ft 396 kts 188°
2026-04-24 20:46 48.49615 2.67650 14555 ft 400 kts 188°
2026-04-24 20:46 48.46855 2.67001 15120 ft 403 kts 188°
2026-04-24 20:47 48.44068 2.66347 15702 ft 407 kts 188°
2026-04-24 20:47 48.41260 2.65688 16257 ft 410 kts 188°
2026-04-24 20:47 48.38428 2.65024 16823 ft 414 kts 188°
2026-04-24 20:47 48.35569 2.64354 17375 ft 418 kts 188°
2026-04-24 20:48 48.32678 2.63679 17916 ft 421 kts 188°
2026-04-24 20:48 48.29799 2.63322 18342 ft 424 kts 176°
2026-04-24 20:48 48.26872 2.63960 18773 ft 426 kts 163°
2026-04-24 20:48 48.24093 2.65488 19266 ft 424 kts 152°
2026-04-24 20:49 48.21470 2.67557 19673 ft 428 kts 150°
2026-04-24 20:49 48.18822 2.69676 20108 ft 432 kts 150°
2026-04-24 20:49 48.16150 2.71782 20590 ft 435 kts 151°
2026-04-24 20:49 48.13453 2.73869 21066 ft 438 kts 151°
2026-04-24 20:50 48.10723 2.75958 21506 ft 442 kts 151°
2026-04-24 20:50 48.07959 2.78035 21930 ft 446 kts 153°
2026-04-24 20:50 48.05104 2.79912 22350 ft 450 kts 155°
2026-04-24 20:50 48.02199 2.81750 22766 ft 454 kts 155°
2026-04-24 20:51 47.99309 2.83564 23170 ft 458 kts 155°
2026-04-24 20:51 47.96360 2.85418 23577 ft 461 kts 155°
2026-04-24 20:51 47.93389 2.87290 23939 ft 465 kts 155°
2026-04-24 20:51 47.90399 2.89179 24283 ft 468 kts 155°
2026-04-24 20:52 47.87395 2.91079 24622 ft 470 kts 155°
2026-04-24 20:52 47.84374 2.92990 24971 ft 473 kts 155°
2026-04-24 20:52 47.81333 2.94913 25311 ft 476 kts 155°
2026-04-24 20:52 47.78270 2.96845 25621 ft 479 kts 155°
2026-04-24 20:53 47.75191 2.98786 25946 ft 482 kts 156°
2026-04-24 20:53 47.72095 3.00734 26257 ft 484 kts 156°
2026-04-24 20:53 47.69019 3.02668 26567 ft 487 kts 156°
2026-04-24 20:53 47.65886 3.04635 26889 ft 490 kts 156°
2026-04-24 20:54 47.62732 3.06613 27172 ft 492 kts 156°
2026-04-24 20:54 47.59569 3.08593 27460 ft 495 kts 156°
2026-04-24 20:54 47.56476 3.10855 27738 ft 496 kts 147°
2026-04-24 20:54 47.53627 3.13784 28016 ft 497 kts 140°
2026-04-24 20:55 47.51081 3.17140 28298 ft 497 kts 133°
2026-04-24 20:55 47.48805 3.21002 28554 ft 498 kts 128°
2026-04-24 20:55 47.46600 3.24988 28788 ft 500 kts 128°
2026-04-24 20:55 47.44391 3.28996 29030 ft 502 kts 128°
2026-04-24 20:56 47.42203 3.32951 29283 ft 504 kts 128°
2026-04-24 20:56 47.39973 3.36950 29581 ft 504 kts 129°
2026-04-24 20:56 47.37736 3.40930 29957 ft 503 kts 129°
2026-04-24 20:56 47.35499 3.44888 30309 ft 501 kts 129°
2026-04-24 20:57 47.33257 3.48837 30593 ft 501 kts 130°
2026-04-24 20:57 47.31015 3.52776 30855 ft 500 kts 130°
2026-04-24 20:57 47.28778 3.56699 31100 ft 500 kts 130°
2026-04-24 20:57 47.26540 3.60618 31345 ft 500 kts 131°
2026-04-24 20:58 47.24304 3.64530 31568 ft 500 kts 131°
2026-04-24 20:58 47.22079 3.68418 31773 ft 500 kts 131°
2026-04-24 20:58 47.19833 3.72337 31982 ft 500 kts 131°
2026-04-24 20:58 47.17582 3.76261 32058 ft 503 kts 131°
2026-04-24 20:59 47.13062 3.84124 32119 ft 501 kts 132°
2026-04-24 20:59 47.08595 3.91873 32123 ft 498 kts 133°
2026-04-24 21:00 47.04119 3.99613 32128 ft 496 kts 133°
2026-04-24 21:00 46.99648 4.07322 32124 ft 495 kts 133°
2026-04-24 21:01 46.95182 4.15003 32132 ft 495 kts 133°
2026-04-24 21:01 46.90704 4.22682 32137 ft 496 kts 134°
2026-04-24 21:02 46.86207 4.30370 32136 ft 497 kts 134°
2026-04-24 21:02 46.81730 4.38001 32124 ft 497 kts 134°
2026-04-24 21:03 46.77199 4.45707 32122 ft 497 kts 134°
2026-04-24 21:03 46.72704 4.53331 32120 ft 496 kts 134°
2026-04-24 21:04 46.68204 4.60940 32109 ft 496 kts 134°
2026-04-24 21:04 46.63723 4.68495 32106 ft 495 kts 134°
2026-04-24 21:05 46.59201 4.76099 32106 ft 494 kts 134°
2026-04-24 21:05 46.54723 4.83609 32111 ft 494 kts 134°
2026-04-24 21:06 46.50212 4.91151 32107 ft 493 kts 134°
2026-04-24 21:06 46.45707 4.98663 32105 ft 493 kts 134°
2026-04-24 21:07 46.41212 5.06139 32107 ft 493 kts 134°
2026-04-24 21:07 46.36681 5.13653 32109 ft 492 kts 134°
2026-04-24 21:08 46.32206 5.21055 32111 ft 492 kts 134°
2026-04-24 21:08 46.27695 5.28495 32112 ft 491 kts 134°
2026-04-24 21:09 46.23182 5.35921 32111 ft 490 kts 134°
2026-04-24 21:09 46.18705 5.43265 32118 ft 489 kts 134°
2026-04-24 21:10 46.14210 5.50620 32119 ft 488 kts 134°
2026-04-24 21:10 46.09714 5.57957 32121 ft 487 kts 134°
2026-04-24 21:11 46.05220 5.65271 32119 ft 487 kts 134°
2026-04-24 21:11 46.00725 5.72567 32125 ft 486 kts 134°
2026-04-24 21:12 45.96991 5.78614 32116 ft 485 kts 133°
2026-04-24 21:12 45.91784 5.87022 32133 ft 484 kts 134°
2026-04-24 21:13 45.87301 5.94242 32129 ft 483 kts 134°
2026-04-24 21:13 45.82819 6.01441 32132 ft 483 kts 133°
2026-04-24 21:14 45.78333 6.08627 32132 ft 482 kts 134°
2026-04-24 21:14 45.73877 6.15748 32131 ft 482 kts 134°
2026-04-24 21:15 45.69394 6.22891 32129 ft 481 kts 133°
2026-04-24 21:15 45.64933 6.29983 32118 ft 481 kts 133°
2026-04-24 21:16 45.60431 6.37121 32127 ft 480 kts 133°
2026-04-24 21:16 45.55964 6.44183 32140 ft 480 kts 133°
2026-04-24 21:17 45.51483 6.51251 32153 ft 479 kts 133°
2026-04-24 21:17 45.47769 6.57096 32137 ft 480 kts 133°
2026-04-24 21:18 45.42539 6.65305 32141 ft 480 kts 133°
2026-04-24 21:18 45.38022 6.72374 32144 ft 480 kts 133°
2026-04-24 21:19 45.33542 6.79368 32140 ft 480 kts 133°
2026-04-24 21:19 45.29040 6.86381 32147 ft 481 kts 133°
2026-04-24 21:20 45.22252 6.96918 32154 ft 482 kts 133°
2026-04-24 21:21 45.17737 7.03904 32157 ft 482 kts 133°
2026-04-24 21:21 45.13210 7.10892 32174 ft 481 kts 133°
2026-04-24 21:22 45.08692 7.17849 32180 ft 480 kts 133°
2026-04-24 21:22 45.04155 7.24817 32186 ft 480 kts 133°
2026-04-24 21:23 44.99650 7.31718 32171 ft 479 kts 133°
2026-04-24 21:23 44.95117 7.38645 32147 ft 479 kts 133°
2026-04-24 21:24 44.90605 7.45523 32116 ft 479 kts 133°
2026-04-24 21:24 44.86061 7.52432 32083 ft 479 kts 133°
2026-04-24 21:25 44.81523 7.59314 32055 ft 479 kts 133°
2026-04-24 21:25 44.76965 7.66211 32052 ft 479 kts 133°
2026-04-24 21:26 44.72425 7.73063 32056 ft 479 kts 133°
2026-04-24 21:26 44.67878 7.79908 32051 ft 479 kts 133°
2026-04-24 21:27 44.63342 7.86719 32055 ft 479 kts 133°
2026-04-24 21:27 44.58785 7.93546 32057 ft 479 kts 133°
2026-04-24 21:28 44.54223 8.00364 32062 ft 478 kts 133°
2026-04-24 21:28 44.49690 8.07122 32075 ft 478 kts 133°
2026-04-24 21:29 44.45124 8.13910 32088 ft 477 kts 133°
2026-04-24 21:29 44.40574 8.20662 32094 ft 477 kts 133°
2026-04-24 21:30 44.36009 8.27417 32102 ft 476 kts 133°
2026-04-24 21:30 44.31470 8.34117 32101 ft 476 kts 133°
2026-04-24 21:31 44.26911 8.40833 32113 ft 477 kts 133°
2026-04-24 21:31 44.23105 8.46425 32110 ft 477 kts 133°
2026-04-24 21:32 44.17800 8.54202 32116 ft 477 kts 133°
2026-04-24 21:32 44.13967 8.59808 32117 ft 477 kts 133°
2026-04-24 21:33 44.09399 8.66473 32117 ft 477 kts 133°
2026-04-24 21:33 44.04837 8.73114 32118 ft 477 kts 133°
2026-04-24 21:34 44.00257 8.79766 32122 ft 477 kts 133°
2026-04-24 21:34 43.95665 8.86420 32123 ft 477 kts 133°
2026-04-24 21:35 43.91055 8.93083 32128 ft 477 kts 133°
2026-04-24 21:35 43.86467 8.99698 32127 ft 477 kts 133°
2026-04-24 21:36 43.81866 9.06317 32131 ft 477 kts 133°
2026-04-24 21:36 43.77277 9.12902 32127 ft 477 kts 133°
2026-04-24 21:37 43.72650 9.19526 32132 ft 476 kts 133°
2026-04-24 21:37 43.68059 9.26085 32129 ft 476 kts 133°
2026-04-24 21:38 43.63455 9.32645 32134 ft 476 kts 133°
2026-04-24 21:38 43.58846 9.39198 32128 ft 476 kts 133°
2026-04-24 21:39 43.54220 9.45758 32138 ft 476 kts 133°
2026-04-24 21:39 43.49601 9.52294 32137 ft 475 kts 132°
2026-04-24 21:40 43.45004 9.58784 32141 ft 475 kts 132°
2026-04-24 21:40 43.40361 9.65324 32134 ft 475 kts 132°
2026-04-24 21:41 43.35766 9.71780 32135 ft 475 kts 132°
2026-04-24 21:41 43.31111 9.78306 32138 ft 475 kts 132°
2026-04-24 21:42 43.26499 9.84756 32136 ft 475 kts 132°
2026-04-24 21:42 43.21882 9.91199 32141 ft 475 kts 132°
2026-04-24 21:43 43.17259 9.97635 32138 ft 474 kts 132°
2026-04-24 21:43 43.12623 10.04075 32138 ft 474 kts 132°
2026-04-24 21:44 43.07969 10.10524 32137 ft 474 kts 132°
2026-04-24 21:44 43.03329 10.16941 32137 ft 474 kts 132°
2026-04-24 21:45 42.98709 10.23314 32134 ft 473 kts 132°
2026-04-24 21:45 42.94072 10.29696 32132 ft 473 kts 132°
2026-04-24 21:46 42.89465 10.36023 32135 ft 472 kts 132°
2026-04-24 21:46 42.84820 10.42388 32133 ft 472 kts 132°
2026-04-24 21:47 42.80183 10.48727 32133 ft 472 kts 132°
2026-04-24 21:47 42.75567 10.55023 32136 ft 471 kts 132°
2026-04-24 21:48 42.70931 10.61333 32124 ft 471 kts 132°
2026-04-24 21:48 42.66289 10.67637 32124 ft 471 kts 132°
2026-04-24 21:49 42.61654 10.73917 32124 ft 470 kts 133°
2026-04-24 21:49 42.57016 10.80187 32123 ft 470 kts 133°
2026-04-24 21:50 42.52402 10.86412 32122 ft 470 kts 133°
2026-04-24 21:50 42.47758 10.92662 32128 ft 470 kts 133°
2026-04-24 21:51 42.43116 10.98896 32128 ft 469 kts 133°
2026-04-24 21:51 42.38500 11.05081 32125 ft 469 kts 133°
2026-04-24 21:52 42.33860 11.11286 32127 ft 469 kts 133°
2026-04-24 21:52 42.29210 11.17489 32127 ft 469 kts 133°
2026-04-24 21:53 42.24559 11.23680 32130 ft 468 kts 133°
2026-04-24 21:53 42.19932 11.29826 32127 ft 468 kts 133°
2026-04-24 21:54 42.15283 11.35988 32119 ft 468 kts 133°
2026-04-24 21:54 42.10636 11.42134 32122 ft 468 kts 133°
2026-04-24 21:55 42.05980 11.48279 32120 ft 468 kts 133°
2026-04-24 21:55 42.01359 11.54363 32123 ft 468 kts 133°
2026-04-24 21:56 41.96704 11.60480 32122 ft 467 kts 133°
2026-04-24 21:56 41.92052 11.66579 32112 ft 467 kts 133°
2026-04-24 21:57 41.87394 11.72674 32140 ft 467 kts 133°
2026-04-24 21:57 41.82761 11.78722 32157 ft 466 kts 133°
2026-04-24 21:58 41.78104 11.84790 32151 ft 466 kts 133°
2026-04-24 21:58 41.73443 11.90848 32103 ft 467 kts 133°
2026-04-24 21:59 41.68778 11.96900 32108 ft 467 kts 134°
2026-04-24 21:59 41.64108 12.02945 32112 ft 467 kts 134°
2026-04-24 22:00 41.59463 12.08946 32111 ft 467 kts 134°
2026-04-24 22:00 41.54783 12.14979 32112 ft 467 kts 134°
2026-04-24 22:01 41.50095 12.21007 32108 ft 467 kts 134°
2026-04-24 22:01 41.45438 12.26985 32107 ft 467 kts 134°
2026-04-24 22:02 41.40754 12.32985 32108 ft 466 kts 134°
2026-04-24 22:02 41.36080 12.38958 32113 ft 465 kts 134°
2026-04-24 22:03 41.31406 12.44921 32123 ft 465 kts 134°
2026-04-24 22:03 41.26734 12.50867 32119 ft 465 kts 134°
2026-04-24 22:04 41.22091 12.56765 32120 ft 465 kts 134°
2026-04-24 22:04 41.17412 12.62696 32116 ft 465 kts 134°
2026-04-24 22:05 41.12716 12.68636 32116 ft 466 kts 134°
2026-04-24 22:05 41.08021 12.74564 32119 ft 466 kts 134°
2026-04-24 22:06 41.03319 12.80488 32119 ft 467 kts 134°
2026-04-24 22:06 40.98631 12.86383 32118 ft 467 kts 134°
2026-04-24 22:07 40.93910 12.92307 32118 ft 467 kts 134°
2026-04-24 22:07 40.89532 12.98623 32115 ft 464 kts 123°
2026-04-24 22:08 40.85836 13.05610 32127 ft 464 kts 123°
2026-04-24 22:08 40.82127 13.12615 32119 ft 465 kts 123°
2026-04-24 22:09 40.78413 13.19563 32116 ft 465 kts 123°
2026-04-24 22:09 40.74665 13.26533 32114 ft 466 kts 123°
2026-04-24 22:10 40.70911 13.33493 32100 ft 466 kts 123°
2026-04-24 22:10 40.67153 13.40447 32116 ft 466 kts 123°
2026-04-24 22:11 40.63384 13.47406 32122 ft 466 kts 123°
2026-04-24 22:11 40.59645 13.54295 32107 ft 465 kts 123°
2026-04-24 22:12 40.55870 13.61235 32114 ft 465 kts 123°
2026-04-24 22:12 40.52094 13.68161 32109 ft 465 kts 123°
2026-04-24 22:13 40.48310 13.75086 32109 ft 466 kts 123°
2026-04-24 22:13 40.44528 13.81994 32108 ft 466 kts 123°
2026-04-24 22:14 40.40761 13.88857 32106 ft 466 kts 123°
2026-04-24 22:14 40.36967 13.95756 32106 ft 466 kts 123°
2026-04-24 22:15 40.33166 14.02651 32107 ft 466 kts 123°
2026-04-24 22:15 40.29359 14.09542 32103 ft 466 kts 123°
2026-04-24 22:16 40.25550 14.16421 32106 ft 466 kts 123°
2026-04-24 22:16 40.21735 14.23297 32110 ft 466 kts 123°
2026-04-24 22:17 40.17936 14.30128 32104 ft 467 kts 123°
2026-04-24 22:17 40.14754 14.35840 32106 ft 467 kts 123°
2026-04-24 22:18 40.10920 14.42706 32105 ft 467 kts 123°
2026-04-24 22:18 40.07085 14.49561 32103 ft 467 kts 123°
2026-04-24 22:19 40.03249 14.56401 32109 ft 467 kts 123°
2026-04-24 22:19 39.99420 14.63214 32102 ft 467 kts 123°
2026-04-24 22:20 39.95579 14.70035 32104 ft 467 kts 123°
2026-04-24 22:20 39.91725 14.76863 32101 ft 467 kts 123°
2026-04-24 22:21 39.87882 14.83657 32107 ft 467 kts 123°
2026-04-24 22:21 39.84011 14.90485 32103 ft 468 kts 123°
2026-04-24 22:22 39.80160 14.97265 32111 ft 468 kts 123°
2026-04-24 22:22 39.76281 15.04077 32102 ft 468 kts 123°
2026-04-24 22:23 39.72401 15.10879 32103 ft 468 kts 123°
2026-04-24 22:23 39.68512 15.17681 32101 ft 469 kts 123°
2026-04-24 22:24 39.64648 15.24424 32102 ft 469 kts 123°
2026-04-24 22:24 39.60754 15.31206 32102 ft 469 kts 123°
2026-04-24 22:25 39.56853 15.37985 32102 ft 469 kts 123°
2026-04-24 22:25 39.52938 15.44774 32099 ft 469 kts 123°
2026-04-24 22:26 39.49030 15.51536 32102 ft 469 kts 123°
2026-04-24 22:26 39.45145 15.58245 32112 ft 468 kts 123°
2026-04-24 22:27 39.41226 15.64998 32102 ft 468 kts 123°
2026-04-24 22:27 39.37300 15.71749 32100 ft 468 kts 123°
2026-04-24 22:28 39.33402 15.78436 32110 ft 468 kts 123°
2026-04-24 22:28 39.29479 15.85154 32114 ft 468 kts 123°
2026-04-24 22:29 39.23609 15.95179 32119 ft 468 kts 123°
2026-04-24 22:29 39.19679 16.01872 32127 ft 467 kts 123°
2026-04-24 22:30 39.15740 16.08567 32122 ft 467 kts 123°
2026-04-24 22:30 39.11837 16.15187 32139 ft 466 kts 123°
2026-04-24 22:31 39.07908 16.21839 32139 ft 466 kts 123°
2026-04-24 22:31 39.03971 16.28488 32147 ft 466 kts 123°
2026-04-24 22:32 39.00037 16.35120 32120 ft 466 kts 123°
2026-04-24 22:32 38.96100 16.41743 32131 ft 465 kts 123°
2026-04-24 22:33 38.92174 16.48332 32125 ft 464 kts 123°
2026-04-24 22:33 38.88246 16.54913 32137 ft 464 kts 123°
2026-04-24 22:34 38.84341 16.61442 32120 ft 464 kts 123°
2026-04-24 22:34 38.80402 16.68016 32108 ft 465 kts 123°
2026-04-24 22:35 38.76454 16.74590 32097 ft 465 kts 123°
2026-04-24 22:35 38.72499 16.81162 32091 ft 465 kts 123°
2026-04-24 22:36 38.68554 16.87703 32085 ft 465 kts 123°
2026-04-24 22:36 38.64595 16.94255 32086 ft 465 kts 123°
2026-04-24 22:37 38.60631 17.00803 32080 ft 466 kts 123°
2026-04-24 22:37 38.56663 17.07343 32085 ft 467 kts 123°
2026-04-24 22:38 38.52679 17.13897 32075 ft 468 kts 123°
2026-04-24 22:38 38.48678 17.20465 32083 ft 469 kts 123°
2026-04-24 22:39 38.44673 17.27028 32076 ft 469 kts 123°
2026-04-24 22:39 38.40663 17.33582 32082 ft 470 kts 123°
2026-04-24 22:40 38.36619 17.40182 32079 ft 471 kts 124°
2026-04-24 22:40 38.32589 17.46744 32082 ft 472 kts 124°
2026-04-24 22:41 38.28533 17.53335 32063 ft 474 kts 124°
2026-04-24 22:41 38.24455 17.59949 32068 ft 475 kts 124°
2026-04-24 22:42 38.20364 17.66571 32068 ft 477 kts 124°
2026-04-24 22:42 38.16253 17.73212 32074 ft 479 kts 125°
2026-04-24 22:43 38.12114 17.79882 32069 ft 480 kts 125°
2026-04-24 22:43 38.07974 17.86543 32074 ft 482 kts 125°
2026-04-24 22:44 38.03821 17.93210 32064 ft 483 kts 126°
2026-04-24 22:44 37.99648 17.99894 32068 ft 485 kts 126°
2026-04-24 22:45 37.95431 18.06636 32061 ft 486 kts 126°
2026-04-24 22:45 37.91232 18.13337 32066 ft 487 kts 126°
2026-04-24 22:46 37.86992 18.20087 32058 ft 489 kts 126°
2026-04-24 22:46 37.82753 18.26823 32069 ft 491 kts 127°
2026-04-24 22:47 37.78495 18.33575 32060 ft 493 kts 127°
2026-04-24 22:47 37.74219 18.40343 32065 ft 494 kts 127°
2026-04-24 22:48 37.69909 18.47147 32056 ft 496 kts 127°
2026-04-24 22:48 37.65583 18.53965 32062 ft 498 kts 128°
2026-04-24 22:49 37.61246 18.60785 32054 ft 500 kts 128°
2026-04-24 22:49 37.56902 18.67601 32058 ft 501 kts 128°
2026-04-24 22:50 37.52522 18.74460 32050 ft 502 kts 129°
2026-04-24 22:50 37.48158 18.81282 32057 ft 502 kts 129°
2026-04-24 22:51 37.43779 18.88111 32046 ft 503 kts 129°
2026-04-24 22:51 37.39374 18.94966 32054 ft 503 kts 130°
2026-04-24 22:52 37.34987 19.01781 32046 ft 504 kts 130°
2026-04-24 22:52 37.30562 19.08639 32048 ft 505 kts 130°
2026-04-24 22:53 37.26122 19.15506 32033 ft 506 kts 131°
2026-04-24 22:53 37.21697 19.22337 32032 ft 507 kts 131°
2026-04-24 22:54 37.17219 19.29234 32048 ft 509 kts 131°
2026-04-24 22:54 37.12742 19.36116 32045 ft 511 kts 132°
2026-04-24 22:55 37.08232 19.43035 32042 ft 513 kts 132°
2026-04-24 22:55 37.03705 19.49965 32022 ft 515 kts 133°
2026-04-24 22:56 36.99159 19.56909 32034 ft 517 kts 133°
2026-04-24 22:56 36.94586 19.63880 32034 ft 519 kts 134°
2026-04-24 22:57 36.89987 19.70876 32024 ft 521 kts 134°
2026-04-24 22:57 36.85389 19.77857 32026 ft 522 kts 134°
2026-04-24 22:58 36.80769 19.84856 32020 ft 523 kts 134°
2026-04-24 22:58 36.76129 19.91871 32019 ft 524 kts 135°
2026-04-24 22:59 36.71485 19.98877 32015 ft 524 kts 135°
2026-04-24 23:00 36.64512 20.09367 32020 ft 525 kts 136°
2026-04-24 23:00 36.59868 20.16336 32017 ft 525 kts 136°
2026-04-24 23:01 36.55202 20.23323 32016 ft 526 kts 136°
2026-04-24 23:01 36.50531 20.30305 32014 ft 526 kts 136°
2026-04-24 23:02 36.45824 20.37321 32016 ft 527 kts 136°
2026-04-24 23:02 36.41149 20.44281 32007 ft 527 kts 137°
2026-04-24 23:03 36.36430 20.51291 32013 ft 527 kts 137°
2026-04-24 23:03 36.31713 20.58284 32003 ft 527 kts 137°
2026-04-24 23:04 36.27020 20.65223 32004 ft 527 kts 137°
2026-04-24 23:04 36.22298 20.72193 32004 ft 527 kts 137°
2026-04-24 23:05 36.17606 20.79105 32017 ft 527 kts 137°
2026-04-24 23:05 36.12879 20.86053 32007 ft 526 kts 137°
2026-04-24 23:06 36.08153 20.92985 32004 ft 526 kts 137°
2026-04-24 23:06 36.03448 20.99874 32003 ft 525 kts 137°
2026-04-24 23:07 35.98738 21.06756 32000 ft 525 kts 137°
2026-04-24 23:07 35.94037 21.13609 31999 ft 524 kts 137°
2026-04-24 23:08 35.90085 21.19360 32000 ft 523 kts 136°
2026-04-24 23:08 35.84620 21.27298 31994 ft 523 kts 136°
2026-04-24 23:09 35.79909 21.34126 31999 ft 522 kts 136°
2026-04-24 23:09 35.75971 21.39822 31996 ft 521 kts 136°
2026-04-24 23:10 35.71269 21.46610 31996 ft 521 kts 136°
2026-04-24 23:10 35.66582 21.53365 31992 ft 520 kts 136°
2026-04-24 23:11 35.61882 21.60124 31996 ft 519 kts 136°
2026-04-24 23:11 35.57200 21.66845 31987 ft 519 kts 136°
2026-04-24 23:12 35.52523 21.73545 31989 ft 518 kts 136°
2026-04-24 23:12 35.47825 21.80262 32093 ft 517 kts 134°
2026-04-24 23:12 35.45507 21.83555 32084 ft 503 kts 131°
2026-04-24 23:13 35.43285 21.86724 32003 ft 487 kts 131°
2026-04-24 23:13 35.41114 21.89824 31966 ft 472 kts 131°
2026-04-24 23:13 35.38998 21.92841 31965 ft 463 kts 131°
2026-04-24 23:14 35.34755 21.98880 31992 ft 472 kts 131°
2026-04-24 23:14 35.30426 22.05023 31990 ft 480 kts 131°
2026-04-24 23:15 35.26056 22.11215 31968 ft 483 kts 132°
2026-04-24 23:15 35.21643 22.17454 31966 ft 484 kts 132°
2026-04-24 23:16 35.17230 22.23687 31968 ft 484 kts 132°
2026-04-24 23:16 35.12813 22.29910 31956 ft 484 kts 132°
2026-04-24 23:17 35.08420 22.36088 31952 ft 483 kts 132°
2026-04-24 23:17 35.04010 22.42279 31957 ft 485 kts 132°
2026-04-24 23:18 34.99580 22.48491 31952 ft 482 kts 132°
2026-04-24 23:18 34.95171 22.54660 31944 ft 485 kts 133°
2026-04-24 23:19 34.90765 22.60813 31958 ft 485 kts 133°
2026-04-24 23:19 34.86327 22.67000 31952 ft 483 kts 133°
2026-04-24 23:20 34.81886 22.73178 31929 ft 484 kts 133°
2026-04-24 23:20 34.77458 22.79333 31949 ft 484 kts 133°
2026-04-24 23:21 34.73015 22.85495 31942 ft 484 kts 134°
2026-04-24 23:21 34.68606 22.91599 31914 ft 483 kts 133°
2026-04-24 23:22 34.64175 22.97725 31904 ft 479 kts 133°
2026-04-24 23:22 34.59605 23.03571 31925 ft 475 kts 137°
2026-04-24 23:23 34.54848 23.09175 31920 ft 476 kts 138°
2026-04-24 23:23 34.50116 23.14732 31920 ft 477 kts 138°
2026-04-24 23:24 34.45351 23.20349 31918 ft 477 kts 138°
2026-04-24 23:24 34.40592 23.25968 31914 ft 478 kts 138°
2026-04-24 23:25 34.35824 23.31593 31909 ft 478 kts 139°
2026-04-24 23:25 34.31093 23.37163 31907 ft 477 kts 139°
2026-04-24 23:26 34.26324 23.42768 31910 ft 477 kts 139°
2026-04-24 23:26 34.21553 23.48365 31905 ft 477 kts 139°
2026-04-24 23:27 34.16787 23.53947 31899 ft 477 kts 139°
2026-04-24 23:27 34.12014 23.59527 31902 ft 477 kts 139°
2026-04-24 23:28 34.07269 23.65066 31899 ft 477 kts 139°
2026-04-24 23:28 34.02484 23.70644 31891 ft 477 kts 139°
2026-04-24 23:29 33.97693 23.76218 31894 ft 478 kts 139°
2026-04-24 23:29 33.92910 23.81773 31889 ft 478 kts 139°
2026-04-24 23:30 33.88151 23.87292 31886 ft 478 kts 140°
2026-04-24 23:30 33.83348 23.92853 31881 ft 479 kts 140°
2026-04-24 23:31 33.78544 23.98406 31880 ft 479 kts 140°
2026-04-24 23:31 33.73732 24.03958 31875 ft 479 kts 140°
2026-04-24 23:32 33.68942 24.09478 31873 ft 480 kts 140°
2026-04-24 23:32 33.64111 24.15034 31869 ft 480 kts 140°
2026-04-24 23:33 33.59282 24.20580 31859 ft 480 kts 140°
2026-04-24 23:33 33.54452 24.26117 31853 ft 480 kts 140°
2026-04-24 23:34 33.49622 24.31646 31846 ft 480 kts 141°
2026-04-24 23:34 33.44790 24.37168 31844 ft 480 kts 141°
2026-04-24 23:35 33.39983 24.42652 31838 ft 480 kts 141°
2026-04-24 23:35 33.35136 24.48173 31839 ft 480 kts 141°
2026-04-24 23:36 33.30292 24.53682 31837 ft 481 kts 141°
2026-04-24 23:36 33.25434 24.59198 31838 ft 481 kts 141°
2026-04-24 23:37 33.20604 24.64673 31834 ft 481 kts 141°
2026-04-24 23:37 33.13294 24.72942 31826 ft 482 kts 141°
2026-04-24 23:38 33.08422 24.78443 31835 ft 482 kts 142°
2026-04-24 23:38 33.03559 24.83924 31829 ft 483 kts 142°
2026-04-24 23:39 32.98664 24.89433 31832 ft 484 kts 142°
2026-04-24 23:39 32.93762 24.94940 31833 ft 485 kts 142°
2026-04-24 23:40 32.88868 25.00431 31831 ft 486 kts 142°
2026-04-24 23:40 32.83937 25.05954 31829 ft 487 kts 142°
2026-04-24 23:41 32.78993 25.11482 31831 ft 488 kts 142°
2026-04-24 23:41 32.74057 25.16993 31832 ft 489 kts 142°
2026-04-24 23:42 32.69091 25.22528 31833 ft 490 kts 142°
2026-04-24 23:42 32.64113 25.28068 31825 ft 491 kts 142°
2026-04-24 23:43 32.59128 25.33607 31820 ft 491 kts 142°
2026-04-24 23:43 32.54154 25.39125 31821 ft 491 kts 142°
2026-04-24 23:44 32.49156 25.44661 31819 ft 492 kts 142°
2026-04-24 23:44 32.44152 25.50194 31814 ft 492 kts 142°
2026-04-24 23:45 32.39148 25.55718 31820 ft 493 kts 142°
2026-04-24 23:45 32.34111 25.61271 31830 ft 494 kts 142°
2026-04-24 23:46 32.29102 25.66782 31822 ft 495 kts 142°
2026-04-24 23:46 32.24063 25.72320 31824 ft 495 kts 142°
2026-04-24 23:47 32.18980 25.77895 31824 ft 496 kts 142°
2026-04-24 23:47 32.13954 25.83401 31823 ft 497 kts 142°
2026-04-24 23:48 32.08872 25.88958 31824 ft 497 kts 142°
2026-04-24 23:48 32.03795 25.94501 31821 ft 497 kts 142°
2026-04-24 23:49 31.98752 25.99999 31818 ft 497 kts 142°
2026-04-24 23:49 31.93680 26.05519 31818 ft 496 kts 142°
2026-04-24 23:50 31.88587 26.11054 31821 ft 496 kts 142°
2026-04-24 23:50 31.83541 26.16529 31813 ft 496 kts 142°
2026-04-24 23:51 31.78455 26.22038 31814 ft 495 kts 142°
2026-04-24 23:51 31.73398 26.27507 31818 ft 495 kts 142°
2026-04-24 23:52 31.68316 26.32995 31816 ft 495 kts 142°
2026-04-24 23:52 31.63263 26.38443 31817 ft 494 kts 142°
2026-04-24 23:53 31.58203 26.43891 31817 ft 494 kts 143°
2026-04-24 23:53 31.53133 26.49340 31818 ft 494 kts 143°
2026-04-24 23:54 31.48051 26.54794 31823 ft 495 kts 143°
2026-04-24 23:54 31.42970 26.60239 31821 ft 495 kts 143°
2026-04-24 23:55 31.37883 26.65681 31819 ft 495 kts 143°
2026-04-24 23:55 31.32795 26.71116 31820 ft 495 kts 144°
2026-04-24 23:56 31.27735 26.76514 31821 ft 495 kts 144°
2026-04-24 23:56 31.22637 26.81944 31824 ft 495 kts 144°
2026-04-24 23:57 31.18387 26.86463 31824 ft 495 kts 144°
2026-04-24 23:57 31.12453 26.92766 31825 ft 495 kts 144°
2026-04-24 23:58 31.08207 26.97267 31829 ft 495 kts 144°
2026-04-24 23:58 31.03080 27.02696 31848 ft 495 kts 144°
2026-04-24 23:59 30.97988 27.08079 31838 ft 495 kts 144°
2026-04-24 23:59 30.92895 27.13456 31827 ft 495 kts 144°
2026-04-25 00:00 30.87799 27.18827 31825 ft 495 kts 144°
2026-04-25 00:00 30.82670 27.24226 31833 ft 495 kts 144°
2026-04-25 00:01 30.77578 27.29577 31838 ft 495 kts 144°
2026-04-25 00:01 30.72454 27.34953 31841 ft 496 kts 144°
2026-04-25 00:02 30.67326 27.40326 31837 ft 496 kts 144°
2026-04-25 00:02 30.62213 27.45676 31844 ft 497 kts 144°
2026-04-25 00:03 30.57049 27.51069 31839 ft 498 kts 144°
2026-04-25 00:03 30.51902 27.56439 31833 ft 498 kts 144°
2026-04-25 00:04 30.46775 27.61779 31836 ft 498 kts 144°
2026-04-25 00:04 30.41626 27.67134 31837 ft 498 kts 144°
2026-04-25 00:05 30.36476 27.72482 31835 ft 499 kts 143°
2026-04-25 00:05 30.31300 27.77849 31842 ft 498 kts 143°
2026-04-25 00:06 30.26140 27.83192 31830 ft 498 kts 143°
2026-04-25 00:06 30.20975 27.88533 31830 ft 497 kts 143°
2026-04-25 00:07 30.15826 27.93849 31827 ft 497 kts 143°
2026-04-25 00:07 30.10664 27.99170 31826 ft 496 kts 143°
2026-04-25 00:08 30.05501 28.04485 31823 ft 496 kts 143°
2026-04-25 00:08 30.00362 28.09767 31824 ft 496 kts 143°
2026-04-25 00:09 29.95213 28.15051 31833 ft 496 kts 143°
2026-04-25 00:09 29.90051 28.20342 31828 ft 496 kts 143°
2026-04-25 00:10 29.84892 28.25622 31826 ft 496 kts 143°
2026-04-25 00:10 29.79731 28.30896 31819 ft 496 kts 143°
2026-04-25 00:11 29.74593 28.36139 31826 ft 496 kts 143°
2026-04-25 00:11 29.69405 28.41425 31828 ft 497 kts 143°
2026-04-25 00:12 29.64229 28.46692 31830 ft 497 kts 143°
2026-04-25 00:12 29.59052 28.51952 31831 ft 497 kts 143°
2026-04-25 00:13 29.53902 28.57177 31834 ft 497 kts 143°
2026-04-25 00:13 29.48713 28.62435 31837 ft 497 kts 143°
2026-04-25 00:14 29.43524 28.67685 31844 ft 497 kts 143°
2026-04-25 00:14 29.38328 28.72936 31845 ft 497 kts 143°
2026-04-25 00:15 29.33129 28.78180 31843 ft 498 kts 143°
2026-04-25 00:15 29.27932 28.83417 31847 ft 498 kts 143°
2026-04-25 00:16 29.22727 28.88653 31857 ft 498 kts 143°
2026-04-25 00:16 29.17519 28.93886 31859 ft 498 kts 143°
2026-04-25 00:17 29.12305 28.99116 31864 ft 498 kts 143°
2026-04-25 00:17 29.07119 29.04312 31862 ft 499 kts 143°
2026-04-25 00:18 29.01890 29.09543 31866 ft 499 kts 143°
2026-04-25 00:18 28.96654 29.14774 31878 ft 499 kts 143°
2026-04-25 00:19 28.91446 29.19969 31871 ft 500 kts 143°
2026-04-25 00:19 28.86207 29.25190 31878 ft 500 kts 143°
2026-04-25 00:20 28.80958 29.30410 31878 ft 500 kts 143°
2026-04-25 00:20 28.75708 29.35627 31879 ft 500 kts 143°
2026-04-25 00:21 28.70490 29.40804 31883 ft 500 kts 143°
2026-04-25 00:21 28.65231 29.46014 31889 ft 501 kts 143°
2026-04-25 00:22 28.59964 29.51225 31888 ft 502 kts 143°
2026-04-25 00:22 28.54692 29.56434 31888 ft 502 kts 143°
2026-04-25 00:23 28.49404 29.61651 31910 ft 503 kts 144°
2026-04-25 00:23 28.44112 29.66865 31905 ft 503 kts 144°
2026-04-25 00:24 28.38836 29.72056 31902 ft 504 kts 144°
2026-04-25 00:24 28.33526 29.77274 31900 ft 505 kts 144°
2026-04-25 00:25 28.28210 29.82490 31906 ft 505 kts 144°
2026-04-25 00:25 28.22884 29.87710 31900 ft 506 kts 144°
2026-04-25 00:26 28.17559 29.92921 31897 ft 506 kts 144°
2026-04-25 00:26 28.12251 29.98108 31911 ft 507 kts 144°
2026-04-25 00:27 28.06898 30.03331 31911 ft 507 kts 144°
2026-04-25 00:27 28.01567 30.08527 31914 ft 508 kts 144°
2026-04-25 00:28 27.96201 30.13749 31912 ft 508 kts 144°
2026-04-25 00:28 27.90831 30.18968 31916 ft 509 kts 144°
2026-04-25 00:29 27.85458 30.24183 31919 ft 509 kts 144°
2026-04-25 00:29 27.80087 30.29390 31924 ft 509 kts 144°
2026-04-25 00:30 27.74699 30.34605 31921 ft 510 kts 145°
2026-04-25 00:30 27.69304 30.39820 31926 ft 510 kts 145°
2026-04-25 00:31 27.63941 30.44998 31927 ft 510 kts 145°
2026-04-25 00:31 27.58537 30.50208 31927 ft 511 kts 145°
2026-04-25 00:32 27.53124 30.55419 31931 ft 511 kts 145°
2026-04-25 00:32 27.47702 30.60633 31931 ft 512 kts 145°
2026-04-25 00:33 27.42265 30.65854 31928 ft 513 kts 145°
2026-04-25 00:33 27.36866 30.71031 31946 ft 513 kts 145°
2026-04-25 00:34 27.31436 30.76231 31943 ft 513 kts 146°
2026-04-25 00:34 27.25990 30.81440 31942 ft 513 kts 146°
2026-04-25 00:35 27.20535 30.86651 31937 ft 514 kts 146°
2026-04-25 00:35 27.15078 30.91858 31938 ft 515 kts 146°
2026-04-25 00:36 27.09624 30.97054 31940 ft 515 kts 146°
2026-04-25 00:36 27.04268 31.02391 31936 ft 521 kts 140°
2026-04-25 00:37 26.99649 31.08726 31936 ft 530 kts 129°
2026-04-25 00:37 26.95542 31.15621 31945 ft 531 kts 129°
2026-04-25 00:38 26.91468 31.22479 31942 ft 531 kts 129°
2026-04-25 00:38 26.87336 31.29344 31942 ft 531 kts 129°
2026-04-25 00:39 26.83195 31.36168 31934 ft 530 kts 130°
2026-04-25 00:39 26.79039 31.42996 31940 ft 530 kts 130°
2026-04-25 00:40 26.74901 31.49789 31932 ft 531 kts 130°
2026-04-25 00:40 26.70733 31.56625 31927 ft 531 kts 130°
2026-04-25 00:41 26.66565 31.63452 31925 ft 531 kts 130°
2026-04-25 00:41 26.62414 31.70241 31920 ft 531 kts 130°
2026-04-25 00:42 26.58234 31.77067 31915 ft 532 kts 130°
2026-04-25 00:42 26.54046 31.83894 31913 ft 532 kts 130°
2026-04-25 00:43 26.49847 31.90730 31911 ft 534 kts 130°
2026-04-25 00:43 26.45642 31.97564 31899 ft 534 kts 130°
2026-04-25 00:44 26.41447 32.04374 31900 ft 535 kts 131°
2026-04-25 00:44 26.37223 32.11222 31889 ft 535 kts 131°
2026-04-25 00:45 26.33710 32.16906 31882 ft 535 kts 131°
2026-04-25 00:45 26.28781 32.24872 31879 ft 535 kts 131°
2026-04-25 00:46 26.25263 32.30548 31874 ft 536 kts 131°
2026-04-25 00:47 26.18894 32.40807 31881 ft 537 kts 131°
2026-04-25 00:47 26.14641 32.47644 31860 ft 538 kts 131°
2026-04-25 00:48 26.10361 32.54514 31857 ft 539 kts 131°
2026-04-25 00:48 26.06106 32.61336 31850 ft 540 kts 131°
2026-04-25 00:49 26.01809 32.68215 31838 ft 542 kts 131°
2026-04-25 00:49 25.97519 32.75069 31842 ft 543 kts 131°
2026-04-25 00:50 25.93197 32.81968 31825 ft 544 kts 131°
2026-04-25 00:50 25.88870 32.88866 31830 ft 543 kts 132°
2026-04-25 00:51 25.84544 32.95750 31823 ft 543 kts 132°
2026-04-25 00:51 25.80222 33.02618 31826 ft 542 kts 132°
2026-04-25 00:52 25.75904 33.09466 31825 ft 541 kts 132°
2026-04-25 00:52 25.71592 33.16297 31831 ft 541 kts 132°
2026-04-25 00:53 25.67281 33.23116 31832 ft 542 kts 132°
2026-04-25 00:53 25.62963 33.29934 31832 ft 542 kts 132°
2026-04-25 00:54 25.58623 33.36781 31829 ft 543 kts 132°
2026-04-25 00:54 25.54269 33.43637 31837 ft 543 kts 132°
2026-04-25 00:55 25.49916 33.50482 31848 ft 544 kts 133°
2026-04-25 00:55 25.45579 33.57293 31828 ft 545 kts 133°
2026-04-25 00:56 25.41205 33.64152 31843 ft 545 kts 133°
2026-04-25 00:56 25.36827 33.71009 31841 ft 545 kts 133°
2026-04-25 00:57 25.32450 33.77852 31848 ft 545 kts 133°
2026-04-25 00:57 25.28064 33.84698 31843 ft 545 kts 133°
2026-04-25 00:58 25.23697 33.91507 31840 ft 545 kts 133°
2026-04-25 00:58 25.19306 33.98343 31838 ft 545 kts 133°
2026-04-25 00:59 25.14916 34.05169 31841 ft 545 kts 133°
2026-04-25 00:59 25.10524 34.11986 31839 ft 545 kts 133°
2026-04-25 01:00 25.06122 34.18809 31840 ft 545 kts 133°
2026-04-25 01:00 25.01751 34.25575 31847 ft 545 kts 133°
2026-04-25 01:01 24.97350 34.32377 31844 ft 545 kts 133°
2026-04-25 01:01 24.92944 34.39178 31844 ft 545 kts 133°
2026-04-25 01:02 24.88534 34.45976 31828 ft 545 kts 133°
2026-04-25 01:02 24.84126 34.52761 31840 ft 544 kts 133°
2026-04-25 01:03 24.79742 34.59499 31846 ft 545 kts 133°
2026-04-25 01:03 24.75303 34.66310 31849 ft 546 kts 133°
2026-04-25 01:04 24.70896 34.73064 31845 ft 544 kts 133°
2026-04-25 01:04 24.66442 34.79883 31839 ft 546 kts 133°
2026-04-25 01:05 24.62024 34.86636 31832 ft 547 kts 133°
2026-04-25 01:05 24.57564 34.93443 31816 ft 547 kts 134°
2026-04-25 01:06 24.53135 35.00194 31820 ft 548 kts 134°
2026-04-25 01:06 24.48680 35.06975 31814 ft 548 kts 134°
2026-04-25 01:07 24.44221 35.13753 31817 ft 548 kts 134°
2026-04-25 01:07 24.39737 35.20558 31807 ft 548 kts 134°
2026-04-25 01:08 24.35282 35.27310 31822 ft 548 kts 134°
2026-04-25 01:08 24.30813 35.34075 31812 ft 548 kts 134°
2026-04-25 01:09 24.26353 35.40817 31807 ft 548 kts 134°
2026-04-25 01:09 24.21853 35.47609 31806 ft 548 kts 134°
2026-04-25 01:10 24.17392 35.54334 31811 ft 548 kts 134°
2026-04-25 01:10 24.12895 35.61104 31806 ft 548 kts 134°
2026-04-25 01:11 24.08419 35.67833 31806 ft 548 kts 134°
2026-04-25 01:11 24.03931 35.74570 31805 ft 548 kts 134°
2026-04-25 01:12 23.99445 35.81297 31805 ft 548 kts 134°
2026-04-25 01:12 23.94949 35.88028 31803 ft 548 kts 134°
2026-04-25 01:13 23.90456 35.94746 31810 ft 548 kts 134°
2026-04-25 01:13 23.85957 36.01465 31804 ft 547 kts 134°
2026-04-25 01:14 23.81460 36.08170 31805 ft 547 kts 134°
2026-04-25 01:14 23.76966 36.14864 31804 ft 546 kts 134°
2026-04-25 01:15 23.72464 36.21559 31809 ft 546 kts 134°
2026-04-25 01:15 23.67997 36.28194 31804 ft 545 kts 134°
2026-04-25 01:16 23.63515 36.34842 31809 ft 545 kts 134°
2026-04-25 01:16 23.59013 36.41511 31808 ft 544 kts 134°
2026-04-25 01:17 23.54536 36.48134 31809 ft 544 kts 134°
2026-04-25 01:17 23.50034 36.54786 31807 ft 543 kts 134°
2026-04-25 01:18 23.45555 36.61395 31803 ft 542 kts 134°
2026-04-25 01:18 23.41094 36.67969 31804 ft 542 kts 134°
2026-04-25 01:19 23.36619 36.74555 31807 ft 542 kts 134°
2026-04-25 01:19 23.32132 36.81150 31807 ft 541 kts 134°
2026-04-25 01:20 23.27640 36.87743 31804 ft 541 kts 134°
2026-04-25 01:20 23.23147 36.94330 31806 ft 541 kts 134°
2026-04-25 01:21 23.18678 37.00872 31809 ft 542 kts 134°
2026-04-25 01:21 23.14181 37.07448 31801 ft 542 kts 134°
2026-04-25 01:22 23.09673 37.14032 31806 ft 542 kts 134°
2026-04-25 01:22 23.05163 37.20610 31805 ft 542 kts 134°
2026-04-25 01:23 23.00678 37.27143 31805 ft 543 kts 134°
2026-04-25 01:23 22.96167 37.33706 31804 ft 543 kts 134°
2026-04-25 01:24 22.91622 37.40311 31804 ft 543 kts 134°
2026-04-25 01:24 22.87127 37.46835 31804 ft 543 kts 134°
2026-04-25 01:25 22.82590 37.53410 31804 ft 543 kts 134°
2026-04-25 01:25 22.78063 37.59963 31808 ft 543 kts 134°
2026-04-25 01:26 22.73533 37.66513 31801 ft 543 kts 134°
2026-04-25 01:26 22.69012 37.73041 31801 ft 543 kts 134°
2026-04-25 01:27 22.64470 37.79592 31805 ft 543 kts 134°
2026-04-25 01:27 22.59933 37.86126 31798 ft 542 kts 134°
2026-04-25 01:28 22.53157 37.95871 31800 ft 542 kts 134°
2026-04-25 01:28 22.48616 38.02392 31802 ft 542 kts 134°
2026-04-25 01:29 22.44071 38.08910 31803 ft 542 kts 134°
2026-04-25 01:29 22.39530 38.15413 31812 ft 542 kts 134°
2026-04-25 01:30 22.34981 38.21921 31807 ft 542 kts 134°
2026-04-25 01:30 22.30457 38.28385 31803 ft 543 kts 134°
2026-04-25 01:31 22.25901 38.34888 31807 ft 543 kts 134°
2026-04-25 01:31 22.21352 38.41372 31800 ft 543 kts 133°
2026-04-25 01:32 22.16795 38.47860 31802 ft 542 kts 133°
2026-04-25 01:32 22.12205 38.54387 31799 ft 542 kts 133°
2026-04-25 01:33 22.07668 38.60831 31804 ft 542 kts 133°
2026-04-25 01:33 22.03875 38.66212 31805 ft 541 kts 133°
2026-04-25 01:34 21.99310 38.72681 31796 ft 541 kts 133°
2026-04-25 01:34 21.94766 38.79113 31802 ft 540 kts 133°
2026-04-25 01:35 21.89476 38.86592 31805 ft 540 kts 133°
2026-04-25 01:35 21.84933 38.93006 31803 ft 540 kts 133°
2026-04-25 01:36 21.81124 38.98379 31798 ft 539 kts 133°
2026-04-25 01:36 21.76574 39.04791 31799 ft 539 kts 133°
2026-04-25 01:37 21.71494 39.10475 31801 ft 515 kts 155°
2026-04-25 01:37 21.68372 39.12259 31812 ft 503 kts 166°
2026-04-25 01:37 21.65066 39.13382 31803 ft 493 kts 178°
2026-04-25 01:38 21.58370 39.14263 31798 ft 491 kts 181°
2026-04-25 01:38 21.51535 39.15190 31807 ft 497 kts 180°
2026-04-25 01:39 21.44714 39.16185 31802 ft 490 kts 180°
2026-04-25 01:39 21.38016 39.17177 31821 ft 489 kts 180°
2026-04-25 01:40 21.31247 39.18170 31822 ft 491 kts 180°
2026-04-25 01:40 21.24462 39.19162 31824 ft 492 kts 180°
2026-04-25 01:41 21.17698 39.20150 31826 ft 493 kts 179°
2026-04-25 01:41 21.10864 39.21148 31828 ft 494 kts 179°
2026-04-25 01:42 21.04079 39.22138 31824 ft 494 kts 179°
2026-04-25 01:42 20.97261 39.23132 31821 ft 493 kts 179°
2026-04-25 01:43 20.90464 39.24122 31818 ft 493 kts 179°
2026-04-25 01:43 20.83668 39.25111 31811 ft 492 kts 179°
2026-04-25 01:44 20.76921 39.26091 31809 ft 492 kts 179°
2026-04-25 01:44 20.70100 39.27081 31812 ft 492 kts 179°
2026-04-25 01:45 20.63316 39.28065 31807 ft 492 kts 179°
2026-04-25 01:45 20.56575 39.29042 31811 ft 492 kts 179°
2026-04-25 01:46 20.49777 39.30027 31806 ft 492 kts 179°
2026-04-25 01:46 20.42997 39.31007 31809 ft 492 kts 179°
2026-04-25 01:47 20.36215 39.31988 31806 ft 491 kts 178°
2026-04-25 01:47 20.29482 39.32960 31806 ft 491 kts 178°
2026-04-25 01:48 20.22703 39.33938 31807 ft 491 kts 178°
2026-04-25 01:48 20.15923 39.34916 31807 ft 491 kts 178°
2026-04-25 01:49 20.09144 39.35892 31806 ft 491 kts 178°
2026-04-25 01:49 20.02414 39.36861 31807 ft 491 kts 178°
2026-04-25 01:50 19.95643 39.37835 31806 ft 491 kts 178°
2026-04-25 01:50 19.88861 39.38809 31808 ft 491 kts 178°
2026-04-25 01:51 19.82123 39.39776 31806 ft 491 kts 178°
2026-04-25 01:51 19.75350 39.40748 31804 ft 491 kts 178°
2026-04-25 01:52 19.68562 39.41720 31803 ft 491 kts 178°
2026-04-25 01:52 19.61788 39.42690 31802 ft 492 kts 178°
2026-04-25 01:53 19.54996 39.43661 31802 ft 492 kts 178°
2026-04-25 01:53 19.48207 39.44632 31803 ft 492 kts 178°
2026-04-25 01:54 19.41440 39.45598 31801 ft 493 kts 178°
2026-04-25 01:54 19.34633 39.46569 31804 ft 493 kts 178°
2026-04-25 01:55 19.27823 39.47540 31803 ft 493 kts 178°
2026-04-25 01:55 19.21047 39.48505 31798 ft 493 kts 178°
2026-04-25 01:56 19.14228 39.49476 31798 ft 493 kts 178°
2026-04-25 01:56 19.07457 39.50439 31803 ft 493 kts 178°
2026-04-25 01:57 18.97243 39.51890 31805 ft 493 kts 178°
2026-04-25 01:58 18.90440 39.52855 31806 ft 493 kts 178°
2026-04-25 01:58 18.83632 39.53821 31802 ft 493 kts 178°
2026-04-25 01:59 18.76871 39.54779 31806 ft 493 kts 178°
2026-04-25 01:59 18.70067 39.55742 31803 ft 493 kts 178°
2026-04-25 02:00 18.63252 39.56706 31808 ft 494 kts 178°
2026-04-25 02:00 18.56429 39.57670 31807 ft 494 kts 177°
2026-04-25 02:01 18.49643 39.58628 31811 ft 494 kts 177°
2026-04-25 02:01 18.42810 39.59592 31810 ft 495 kts 177°
2026-04-25 02:02 18.36017 39.60550 31806 ft 495 kts 177°
2026-04-25 02:02 18.29182 39.61513 31811 ft 496 kts 177°
2026-04-25 02:03 18.22329 39.62478 31806 ft 496 kts 177°
2026-04-25 02:03 18.15470 39.63443 31811 ft 496 kts 177°
2026-04-25 02:04 18.08618 39.64406 31801 ft 497 kts 177°
2026-04-25 02:04 18.01807 39.65362 31795 ft 497 kts 177°
2026-04-25 02:05 17.94945 39.66325 31811 ft 497 kts 177°
2026-04-25 02:05 17.88065 39.67290 31797 ft 498 kts 177°
2026-04-25 02:06 17.81231 39.68248 31810 ft 498 kts 177°
2026-04-25 02:06 17.74368 39.69209 31798 ft 498 kts 177°
2026-04-25 02:07 17.67479 39.70173 31798 ft 498 kts 177°
2026-04-25 02:07 17.60639 39.71129 31807 ft 498 kts 177°
2026-04-25 02:08 17.53763 39.72089 31799 ft 498 kts 177°
2026-04-25 02:08 17.46887 39.73049 31800 ft 498 kts 177°
2026-04-25 02:09 17.40013 39.74008 31805 ft 498 kts 177°
2026-04-25 02:09 17.33179 39.74960 31808 ft 498 kts 177°
2026-04-25 02:10 17.26304 39.75917 31808 ft 498 kts 177°
2026-04-25 02:10 17.19436 39.76873 31807 ft 498 kts 177°
2026-04-25 02:11 17.12560 39.77829 31801 ft 498 kts 177°
2026-04-25 02:11 17.05682 39.78785 31803 ft 498 kts 177°
2026-04-25 02:12 16.98803 39.79740 31804 ft 498 kts 177°
2026-04-25 02:12 16.91907 39.80697 31813 ft 499 kts 177°
2026-04-25 02:13 16.85036 39.81649 31807 ft 499 kts 176°
2026-04-25 02:13 16.78190 39.82598 31807 ft 499 kts 176°
2026-04-25 02:14 16.71274 39.83555 31805 ft 499 kts 176°
2026-04-25 02:14 16.64403 39.84506 31805 ft 500 kts 176°
2026-04-25 02:15 16.57480 39.85463 31804 ft 500 kts 176°
2026-04-25 02:15 16.50619 39.86410 31806 ft 500 kts 176°
2026-04-25 02:16 16.43709 39.87364 31809 ft 500 kts 176°
2026-04-25 02:16 16.36785 39.88319 31807 ft 501 kts 176°
2026-04-25 02:17 16.29923 39.89265 31809 ft 501 kts 176°
2026-04-25 02:17 16.22991 39.90220 31807 ft 501 kts 176°
2026-04-25 02:18 16.16078 39.91171 31807 ft 501 kts 176°
2026-04-25 02:18 16.09172 39.92121 31806 ft 501 kts 176°
2026-04-25 02:19 16.02270 39.93070 31806 ft 501 kts 176°
2026-04-25 02:19 15.95340 39.94022 31808 ft 502 kts 176°
2026-04-25 02:20 15.88409 39.94973 31807 ft 502 kts 176°
2026-04-25 02:20 15.81495 39.95922 31808 ft 502 kts 176°
2026-04-25 02:21 15.74599 39.96866 31815 ft 502 kts 176°
2026-04-25 02:21 15.67685 39.97814 31812 ft 502 kts 176°
2026-04-25 02:22 15.60720 39.98767 31808 ft 502 kts 176°
2026-04-25 02:22 15.53815 39.99712 31813 ft 502 kts 176°
2026-04-25 02:23 15.46852 40.00664 31810 ft 503 kts 176°
2026-04-25 02:23 15.39950 40.01606 31806 ft 503 kts 176°
2026-04-25 02:24 15.32985 40.02557 31808 ft 503 kts 176°
2026-04-25 02:24 15.26073 40.03500 31810 ft 503 kts 175°
2026-04-25 02:25 15.19157 40.04443 31809 ft 503 kts 175°
2026-04-25 02:25 15.13393 40.05228 31811 ft 503 kts 175°
2026-04-25 02:26 15.06425 40.06177 31814 ft 503 kts 175°
2026-04-25 02:26 14.99486 40.07121 31808 ft 503 kts 175°
2026-04-25 02:27 14.92540 40.08066 31824 ft 503 kts 175°
2026-04-25 02:27 14.85606 40.09008 31809 ft 503 kts 175°
2026-04-25 02:28 14.78693 40.09947 31814 ft 504 kts 175°
2026-04-25 02:28 14.71710 40.10894 31822 ft 504 kts 175°
2026-04-25 02:29 14.64774 40.11835 31830 ft 505 kts 175°
2026-04-25 02:29 14.57777 40.12783 31823 ft 507 kts 175°
2026-04-25 02:30 14.50784 40.13730 31831 ft 507 kts 175°
2026-04-25 02:30 14.43756 40.14682 31833 ft 508 kts 175°
2026-04-25 02:31 14.36786 40.15625 31834 ft 508 kts 175°
2026-04-25 02:31 14.29766 40.16574 31838 ft 508 kts 175°
2026-04-25 02:32 14.22775 40.17519 31838 ft 507 kts 175°
2026-04-25 02:32 14.15770 40.18465 31843 ft 507 kts 175°
2026-04-25 02:33 14.08774 40.19409 31841 ft 506 kts 175°
2026-04-25 02:33 14.01827 40.20346 31845 ft 506 kts 175°
2026-04-25 02:34 13.94831 40.21288 31840 ft 506 kts 174°
2026-04-25 02:34 13.87873 40.22226 31837 ft 506 kts 174°
2026-04-25 02:35 13.80852 40.23171 31844 ft 506 kts 174°
2026-04-25 02:35 13.73882 40.24109 31844 ft 507 kts 174°
2026-04-25 02:36 13.66874 40.25051 31847 ft 507 kts 174°
2026-04-25 02:36 13.59869 40.25992 31850 ft 507 kts 174°
2026-04-25 02:37 13.52902 40.26928 31850 ft 508 kts 174°
2026-04-25 02:37 13.45890 40.27869 31850 ft 508 kts 174°
2026-04-25 02:38 13.38874 40.28810 31857 ft 508 kts 174°
2026-04-25 02:38 13.31844 40.29753 31863 ft 508 kts 174°
2026-04-25 02:39 13.24870 40.30687 31863 ft 509 kts 174°
2026-04-25 02:39 13.17833 40.31629 31872 ft 509 kts 174°
2026-04-25 02:40 13.10790 40.32571 31878 ft 510 kts 174°
2026-04-25 02:40 13.03765 40.33512 31875 ft 510 kts 174°
2026-04-25 02:41 12.96717 40.34454 31883 ft 510 kts 174°
2026-04-25 02:41 12.89707 40.35390 31885 ft 510 kts 174°
2026-04-25 02:42 12.82651 40.36332 31890 ft 510 kts 174°
2026-04-25 02:42 12.75624 40.37270 31893 ft 509 kts 174°
2026-04-25 02:43 12.68600 40.38207 31888 ft 509 kts 174°
2026-04-25 02:43 12.61590 40.39142 31899 ft 509 kts 174°
2026-04-25 02:44 12.54549 40.40080 31900 ft 509 kts 174°
2026-04-25 02:44 12.47580 40.41190 31899 ft 510 kts 168°
2026-04-25 02:45 12.40829 40.43468 31904 ft 512 kts 157°
2026-04-25 02:45 12.34405 40.46615 31917 ft 512 kts 155°
2026-04-25 02:46 12.27995 40.49810 31914 ft 513 kts 155°
2026-04-25 02:46 12.21540 40.52989 31919 ft 513 kts 156°
2026-04-25 02:47 12.15130 40.56115 31919 ft 513 kts 156°
2026-04-25 02:47 12.08691 40.59246 31923 ft 513 kts 156°
2026-04-25 02:48 12.02212 40.62397 31922 ft 513 kts 156°
2026-04-25 02:48 11.95766 40.65531 31925 ft 513 kts 156°
2026-04-25 02:49 11.89336 40.68657 31924 ft 513 kts 156°
2026-04-25 02:49 11.82899 40.71784 31925 ft 513 kts 156°
2026-04-25 02:50 11.76427 40.74927 31922 ft 513 kts 156°
2026-04-25 02:50 11.69970 40.78061 31917 ft 514 kts 156°
2026-04-25 02:51 11.63546 40.81177 31916 ft 514 kts 156°
2026-04-25 02:51 11.57073 40.84315 31921 ft 513 kts 156°
2026-04-25 02:52 11.50641 40.87432 31919 ft 513 kts 156°
2026-04-25 02:52 11.44203 40.90550 31919 ft 513 kts 156°
2026-04-25 02:53 11.37744 40.93676 31918 ft 513 kts 156°
2026-04-25 02:53 11.31292 40.96799 31919 ft 513 kts 156°
2026-04-25 02:54 11.24881 40.99899 31917 ft 513 kts 156°
2026-04-25 02:54 11.18425 41.03019 31924 ft 513 kts 156°
2026-04-25 02:55 11.11965 41.06141 31921 ft 514 kts 156°
2026-04-25 02:55 11.05517 41.09254 31922 ft 514 kts 156°
2026-04-25 02:56 10.99043 41.12379 31923 ft 515 kts 156°
2026-04-25 02:56 10.92551 41.15511 31920 ft 515 kts 156°
2026-04-25 02:57 10.86104 41.18619 31924 ft 515 kts 156°
2026-04-25 02:57 10.79609 41.21750 31925 ft 515 kts 156°
2026-04-25 02:58 10.73179 41.24847 31920 ft 515 kts 156°
2026-04-25 02:58 10.66676 41.27978 31930 ft 515 kts 156°
2026-04-25 02:59 10.60208 41.31091 31926 ft 515 kts 156°
2026-04-25 02:59 10.53725 41.34210 31925 ft 515 kts 156°
2026-04-25 03:00 10.47266 41.37315 31928 ft 515 kts 156°
2026-04-25 03:00 10.40783 41.40431 31927 ft 515 kts 156°
2026-04-25 03:01 10.34289 41.43550 31931 ft 515 kts 156°
2026-04-25 03:01 10.27828 41.46652 31933 ft 515 kts 156°
2026-04-25 03:02 10.21355 41.49759 31925 ft 515 kts 156°
2026-04-25 03:02 10.14874 41.52868 31937 ft 515 kts 156°
2026-04-25 03:03 10.08397 41.55973 31937 ft 515 kts 156°
2026-04-25 03:03 10.01909 41.59083 31934 ft 515 kts 155°
2026-04-25 03:04 9.95414 41.62194 31941 ft 515 kts 155°
2026-04-25 03:04 9.88972 41.65279 31949 ft 515 kts 155°
2026-04-25 03:05 9.79256 41.69929 31961 ft 514 kts 155°
2026-04-25 03:05 9.72779 41.73027 31974 ft 514 kts 155°
2026-04-25 03:06 9.66347 41.76102 31990 ft 513 kts 155°
2026-04-25 03:06 9.59868 41.79199 32009 ft 513 kts 155°
2026-04-25 03:07 9.53396 41.82291 32017 ft 513 kts 155°
2026-04-25 03:07 9.46931 41.85378 32032 ft 513 kts 155°
2026-04-25 03:08 9.40491 41.88452 32041 ft 514 kts 155°
2026-04-25 03:08 9.34032 41.91534 32052 ft 514 kts 155°
2026-04-25 03:09 9.27553 41.94624 32052 ft 514 kts 155°
2026-04-25 03:09 9.21077 41.97711 32056 ft 514 kts 155°
2026-04-25 03:10 9.14640 42.00779 32049 ft 514 kts 155°
2026-04-25 03:10 9.08156 42.03868 32046 ft 514 kts 155°
2026-04-25 03:11 9.01678 42.06952 32043 ft 514 kts 155°
2026-04-25 03:11 8.95235 42.10019 32036 ft 514 kts 155°
2026-04-25 03:12 8.88754 42.13102 32029 ft 514 kts 155°
2026-04-25 03:12 8.82308 42.16168 32024 ft 514 kts 155°
2026-04-25 03:13 8.75837 42.19244 32023 ft 514 kts 155°
2026-04-25 03:13 8.69352 42.22326 32018 ft 514 kts 155°
2026-04-25 03:14 8.62862 42.25409 32017 ft 514 kts 155°
2026-04-25 03:14 8.56422 42.28467 32009 ft 514 kts 155°
2026-04-25 03:15 8.49925 42.31551 32009 ft 514 kts 155°
2026-04-25 03:15 8.44518 42.34117 32008 ft 515 kts 155°
2026-04-25 03:16 8.38021 42.37199 32008 ft 515 kts 155°
2026-04-25 03:16 8.31575 42.40255 32001 ft 515 kts 155°
2026-04-25 03:17 8.25074 42.43337 32003 ft 515 kts 155°
2026-04-25 03:17 8.18582 42.46413 31998 ft 515 kts 155°
2026-04-25 03:18 8.12131 42.49469 31993 ft 515 kts 155°
2026-04-25 03:18 8.05629 42.52547 31988 ft 515 kts 155°
2026-04-25 03:19 7.99127 42.55625 31984 ft 516 kts 155°
2026-04-25 03:19 7.92663 42.58683 31987 ft 516 kts 155°
2026-04-25 03:20 7.86152 42.61763 31976 ft 516 kts 155°
2026-04-25 03:20 7.79646 42.64839 31976 ft 516 kts 155°
2026-04-25 03:21 7.73171 42.67899 31973 ft 516 kts 155°
2026-04-25 03:21 7.66661 42.70975 31971 ft 516 kts 155°
2026-04-25 03:22 7.60149 42.74051 31972 ft 516 kts 155°
2026-04-25 03:22 7.53661 42.77115 31970 ft 516 kts 155°
2026-04-25 03:23 7.47160 42.80183 31966 ft 516 kts 155°
2026-04-25 03:23 7.40624 42.83268 31970 ft 516 kts 154°
2026-04-25 03:24 7.34136 42.86328 31970 ft 516 kts 154°
2026-04-25 03:24 7.27646 42.89388 31963 ft 516 kts 154°
2026-04-25 03:25 7.21155 42.92448 31961 ft 516 kts 154°
2026-04-25 03:25 7.14656 42.95511 31956 ft 515 kts 154°
2026-04-25 03:26 7.08163 42.98570 31955 ft 515 kts 154°
2026-04-25 03:26 7.01657 43.01634 31949 ft 515 kts 154°
2026-04-25 03:27 6.95183 43.04682 31948 ft 515 kts 154°
2026-04-25 03:27 6.88677 43.07745 31942 ft 515 kts 154°
2026-04-25 03:28 6.82189 43.10797 31943 ft 515 kts 154°
2026-04-25 03:28 6.75716 43.13842 31938 ft 516 kts 154°
2026-04-25 03:29 6.69209 43.16902 31937 ft 516 kts 154°
2026-04-25 03:29 6.62722 43.19952 31936 ft 516 kts 154°
2026-04-25 03:30 6.56201 43.23016 31932 ft 516 kts 154°
2026-04-25 03:30 6.49708 43.26067 31929 ft 516 kts 154°
2026-04-25 03:31 6.43194 43.29127 31931 ft 516 kts 154°
2026-04-25 03:31 6.36713 43.32170 31929 ft 516 kts 154°
2026-04-25 03:32 6.30202 43.35227 31926 ft 516 kts 154°
2026-04-25 03:32 6.23701 43.38277 31929 ft 515 kts 154°
2026-04-25 03:33 6.17195 43.41330 31929 ft 515 kts 154°
2026-04-25 03:33 6.10724 43.44366 31932 ft 515 kts 154°
2026-04-25 03:34 6.04208 43.47421 31929 ft 515 kts 154°
2026-04-25 03:34 5.97756 43.50446 31933 ft 515 kts 154°
2026-04-25 03:35 5.91275 43.53483 31935 ft 515 kts 154°
2026-04-25 03:35 5.84760 43.56536 31936 ft 515 kts 154°
2026-04-25 03:36 5.78273 43.59574 31941 ft 516 kts 154°
2026-04-25 03:36 5.71755 43.62627 31942 ft 516 kts 154°
2026-04-25 03:37 5.65249 43.65673 31948 ft 516 kts 154°
2026-04-25 03:37 5.58759 43.68711 31943 ft 516 kts 154°
2026-04-25 03:38 5.52246 43.71759 31950 ft 516 kts 154°
2026-04-25 03:38 5.45780 43.74784 31949 ft 515 kts 154°
2026-04-25 03:39 5.39275 43.77827 31948 ft 515 kts 154°
2026-04-25 03:39 5.32773 43.80868 31947 ft 515 kts 154°
2026-04-25 03:40 5.26275 43.83906 31955 ft 514 kts 154°
2026-04-25 03:40 5.19790 43.86937 31953 ft 514 kts 155°
2026-04-25 03:41 5.13348 43.89947 31955 ft 514 kts 154°
2026-04-25 03:41 5.06862 43.92978 31954 ft 514 kts 155°
2026-04-25 03:42 5.00376 43.96009 31961 ft 513 kts 154°
2026-04-25 03:42 4.93930 43.99020 31963 ft 513 kts 154°
2026-04-25 03:43 4.87416 44.01996 31962 ft 513 kts 156°
2026-04-25 03:43 4.80848 44.04848 31969 ft 514 kts 156°
2026-04-25 03:44 4.74277 44.07683 31966 ft 513 kts 156°
2026-04-25 03:44 4.67759 44.10518 31967 ft 513 kts 156°
2026-04-25 03:45 4.61209 44.13380 31969 ft 513 kts 156°
2026-04-25 03:45 4.54654 44.16246 31971 ft 513 kts 156°
2026-04-25 03:46 4.48125 44.19100 31972 ft 513 kts 156°
2026-04-25 03:46 4.41543 44.21975 31972 ft 513 kts 156°
2026-04-25 03:47 4.35014 44.24826 31969 ft 513 kts 156°
2026-04-25 03:47 4.28502 44.27668 31969 ft 513 kts 156°
2026-04-25 03:48 4.21956 44.30526 31969 ft 512 kts 156°
2026-04-25 03:48 4.15425 44.33376 31967 ft 512 kts 156°
2026-04-25 03:49 4.08897 44.36224 31968 ft 512 kts 156°
2026-04-25 03:49 4.02378 44.39068 31969 ft 512 kts 156°
2026-04-25 03:50 3.95823 44.41928 31968 ft 512 kts 156°
2026-04-25 03:50 3.89302 44.44771 31968 ft 513 kts 156°
2026-04-25 03:51 3.82740 44.47633 31963 ft 513 kts 156°
2026-04-25 03:51 3.76213 44.50478 31958 ft 513 kts 156°
2026-04-25 03:52 3.69663 44.53334 31961 ft 513 kts 156°
2026-04-25 03:52 3.63162 44.56167 31961 ft 513 kts 156°
2026-04-25 03:53 3.56607 44.59023 31963 ft 513 kts 156°
2026-04-25 03:53 3.50063 44.61874 31958 ft 513 kts 156°
2026-04-25 03:54 3.43536 44.64717 31958 ft 513 kts 156°
2026-04-25 03:54 3.36981 44.67572 31951 ft 513 kts 156°
2026-04-25 03:55 3.30456 44.70414 31949 ft 512 kts 156°
2026-04-25 03:55 3.23914 44.73263 31951 ft 512 kts 156°
2026-04-25 03:56 3.17381 44.76107 31948 ft 512 kts 156°
2026-04-25 03:56 3.10838 44.78955 31942 ft 512 kts 156°
2026-04-25 03:57 3.04332 44.81787 31944 ft 512 kts 156°
2026-04-25 03:57 2.97789 44.84634 31940 ft 512 kts 156°
2026-04-25 03:58 2.91245 44.87482 31940 ft 512 kts 156°
2026-04-25 03:58 2.84695 44.90331 31936 ft 512 kts 156°
2026-04-25 03:59 2.78200 44.93157 31937 ft 512 kts 156°
2026-04-25 03:59 2.71650 44.96006 31936 ft 512 kts 156°
2026-04-25 04:00 2.65119 44.98847 31938 ft 511 kts 156°
2026-04-25 04:00 2.58634 45.01667 31939 ft 511 kts 156°
2026-04-25 04:01 2.52086 45.04514 31934 ft 511 kts 156°
2026-04-25 04:01 2.45568 45.07348 31930 ft 511 kts 156°
2026-04-25 04:02 2.39059 45.10178 31937 ft 511 kts 156°
2026-04-25 04:02 2.32534 45.13014 31942 ft 511 kts 156°
2026-04-25 04:03 2.26032 45.15840 31941 ft 512 kts 156°
2026-04-25 04:03 2.19491 45.18682 31938 ft 512 kts 156°
2026-04-25 04:04 2.12966 45.21518 31934 ft 512 kts 156°
2026-04-25 04:04 2.06423 45.24361 31930 ft 512 kts 156°
2026-04-25 04:05 1.99889 45.27200 31927 ft 512 kts 156°
2026-04-25 04:05 1.93346 45.30042 31930 ft 512 kts 156°
2026-04-25 04:06 1.86800 45.32886 31927 ft 512 kts 156°
2026-04-25 04:06 1.80255 45.35729 31922 ft 512 kts 156°
2026-04-25 04:07 1.73756 45.38551 31923 ft 511 kts 156°
2026-04-25 04:07 1.68316 45.40914 31922 ft 511 kts 156°
2026-04-25 04:08 1.61812 45.43739 31922 ft 511 kts 156°
2026-04-25 04:08 1.55307 45.46563 31922 ft 510 kts 156°
2026-04-25 04:09 1.48793 45.49392 31920 ft 510 kts 156°
2026-04-25 04:09 1.42295 45.52213 31919 ft 510 kts 156°
2026-04-25 04:10 1.35768 45.55047 31919 ft 509 kts 156°
2026-04-25 04:10 1.29304 45.57853 31919 ft 509 kts 156°
2026-04-25 04:11 1.19558 45.62084 31920 ft 508 kts 156°
2026-04-25 04:12 1.13090 45.64891 31920 ft 508 kts 156°
2026-04-25 04:12 1.06597 45.67710 31917 ft 507 kts 156°
2026-04-25 04:13 1.00143 45.70511 31917 ft 507 kts 156°
2026-04-25 04:13 0.93681 45.73315 31921 ft 507 kts 156°
2026-04-25 04:14 0.87185 45.76134 31916 ft 507 kts 156°
2026-04-25 04:14 0.80741 45.78931 31919 ft 507 kts 156°
2026-04-25 04:15 0.74252 45.81747 31918 ft 507 kts 156°
2026-04-25 04:15 0.67782 45.84555 31915 ft 508 kts 156°
2026-04-25 04:16 0.61337 45.87352 31915 ft 508 kts 156°
2026-04-25 04:16 0.54820 45.90179 31917 ft 508 kts 156°
2026-04-25 04:17 0.48346 45.92989 31916 ft 508 kts 156°
2026-04-25 04:17 0.41885 45.95792 31914 ft 508 kts 156°
2026-04-25 04:18 0.35393 45.98609 31913 ft 508 kts 156°
2026-04-25 04:18 0.28902 46.01425 31912 ft 508 kts 156°
2026-04-25 04:19 0.22416 46.04240 31913 ft 508 kts 156°
2026-04-25 04:19 0.15920 46.07058 31913 ft 508 kts 156°
2026-04-25 04:20 0.09466 46.09858 31913 ft 508 kts 156°
2026-04-25 04:20 0.02981 46.12672 31911 ft 508 kts 156°
2026-04-25 04:21 -0.03505 46.15486 31918 ft 508 kts 156°
2026-04-25 04:21 -0.10014 46.18310 31913 ft 509 kts 156°
2026-04-25 04:22 -0.16479 46.21115 31913 ft 509 kts 156°
2026-04-25 04:22 -0.22989 46.23940 31914 ft 509 kts 156°
2026-04-25 04:23 -0.29459 46.26747 31915 ft 509 kts 157°
2026-04-25 04:23 -0.35967 46.29571 31916 ft 509 kts 157°
2026-04-25 04:24 -0.42457 46.32387 31915 ft 509 kts 157°
2026-04-25 04:24 -0.48988 46.35221 31915 ft 509 kts 157°
2026-04-25 04:25 -0.55467 46.38032 31912 ft 509 kts 157°
2026-04-25 04:25 -0.61927 46.40836 31913 ft 508 kts 157°
2026-04-25 04:26 -0.68440 46.43662 31915 ft 508 kts 157°
2026-04-25 04:26 -0.74896 46.46464 31915 ft 508 kts 157°
2026-04-25 04:27 -0.81370 46.49273 31916 ft 507 kts 157°
2026-04-25 04:27 -0.87840 46.52081 31915 ft 507 kts 157°
2026-04-25 04:28 -0.94336 46.54900 31914 ft 507 kts 157°
2026-04-25 04:28 -1.00779 46.57696 31917 ft 507 kts 157°
2026-04-25 04:29 -1.07226 46.60494 31915 ft 507 kts 157°
2026-04-25 04:29 -1.13723 46.63315 31915 ft 507 kts 157°
2026-04-25 04:30 -1.20206 46.66128 31915 ft 507 kts 157°
2026-04-25 04:30 -1.26648 46.68925 31912 ft 508 kts 157°
2026-04-25 04:31 -1.33155 46.71750 31916 ft 508 kts 157°
2026-04-25 04:31 -1.39631 46.74561 31916 ft 508 kts 157°
2026-04-25 04:32 -1.46108 46.77373 31918 ft 508 kts 157°
2026-04-25 04:32 -1.52609 46.80196 31919 ft 509 kts 157°
2026-04-25 04:33 -1.59093 46.83012 31918 ft 509 kts 157°
2026-04-25 04:33 -1.65565 46.85822 31918 ft 509 kts 157°
2026-04-25 04:34 -1.72091 46.88657 31917 ft 509 kts 157°
2026-04-25 04:34 -1.78548 46.91461 31915 ft 509 kts 157°
2026-04-25 04:35 -1.85042 46.94282 31915 ft 509 kts 157°
2026-04-25 04:35 -1.91591 46.97126 31920 ft 509 kts 157°
2026-04-25 04:36 -1.98074 46.99943 31917 ft 509 kts 157°
2026-04-25 04:36 -2.04544 47.02754 31918 ft 509 kts 157°
2026-04-25 04:37 -2.11059 47.05585 31918 ft 509 kts 157°
2026-04-25 04:37 -2.17544 47.08403 31917 ft 509 kts 157°
2026-04-25 04:38 -2.24035 47.11223 31920 ft 509 kts 157°
2026-04-25 04:38 -2.30566 47.14062 31918 ft 510 kts 157°
2026-04-25 04:39 -2.37077 47.16892 31916 ft 510 kts 157°
2026-04-25 04:39 -2.43558 47.19710 31918 ft 510 kts 157°
2026-04-25 04:40 -2.50046 47.22531 31918 ft 510 kts 157°
2026-04-25 04:40 -2.56567 47.25366 31918 ft 510 kts 157°
2026-04-25 04:41 -2.63094 47.28204 31918 ft 510 kts 157°
2026-04-25 04:41 -2.69588 47.31029 31915 ft 510 kts 157°
2026-04-25 04:42 -2.76105 47.33863 31918 ft 510 kts 157°
2026-04-25 04:42 -2.82595 47.36687 31917 ft 510 kts 157°
2026-04-25 04:43 -2.89073 47.39506 31918 ft 510 kts 157°
2026-04-25 04:43 -2.95580 47.42338 31918 ft 509 kts 157°
2026-04-25 04:44 -3.02083 47.45168 31919 ft 509 kts 157°
2026-04-25 04:44 -3.08553 47.47948 31920 ft 508 kts 158°
2026-04-25 04:45 -3.15100 47.50733 31917 ft 508 kts 158°
2026-04-25 04:45 -3.21561 47.53484 31918 ft 507 kts 158°
2026-04-25 04:46 -3.28065 47.56260 31917 ft 507 kts 158°
2026-04-25 04:46 -3.34563 47.59036 31921 ft 507 kts 158°
2026-04-25 04:47 -3.41018 47.61795 31919 ft 507 kts 158°
2026-04-25 04:47 -3.47519 47.64574 31917 ft 508 kts 158°
2026-04-25 04:48 -3.54024 47.67354 31918 ft 508 kts 158°
2026-04-25 04:48 -3.60534 47.70137 31918 ft 508 kts 158°
2026-04-25 04:49 -3.67045 47.72921 31921 ft 509 kts 158°
2026-04-25 04:49 -3.73554 47.75705 31920 ft 509 kts 158°
2026-04-25 04:50 -3.80069 47.78492 31919 ft 509 kts 158°
2026-04-25 04:50 -3.86565 47.81270 31919 ft 509 kts 158°
2026-04-25 04:51 -3.93092 47.84063 31922 ft 509 kts 158°
2026-04-25 04:51 -3.99591 47.86844 31923 ft 509 kts 158°
2026-04-25 04:52 -4.06114 47.89636 31918 ft 509 kts 158°
2026-04-25 04:52 -4.12639 47.92429 31921 ft 510 kts 158°
2026-04-25 04:53 -4.19129 47.95207 31921 ft 510 kts 158°
2026-04-25 04:53 -4.25662 47.98005 31920 ft 510 kts 158°
2026-04-25 04:54 -4.32202 48.00806 31921 ft 511 kts 158°
2026-04-25 04:54 -4.38750 48.03611 31922 ft 511 kts 158°
2026-04-25 04:55 -4.45258 48.06400 31921 ft 512 kts 158°
2026-04-25 04:55 -4.51819 48.09211 31921 ft 512 kts 158°
2026-04-25 04:56 -4.58379 48.12023 31922 ft 512 kts 158°
2026-04-25 04:56 -4.63829 48.14359 31923 ft 512 kts 158°
2026-04-25 04:57 -4.70405 48.17179 31923 ft 513 kts 158°
2026-04-25 04:57 -4.76935 48.19980 31921 ft 513 kts 158°
2026-04-25 04:58 -4.83492 48.22792 31921 ft 513 kts 158°
2026-04-25 04:58 -4.90054 48.25608 31920 ft 513 kts 158°
2026-04-25 04:59 -4.96623 48.28427 31919 ft 513 kts 158°
2026-04-25 04:59 -5.03185 48.31244 31921 ft 513 kts 158°
2026-04-25 05:00 -5.09756 48.34065 31920 ft 513 kts 158°
2026-04-25 05:00 -5.16282 48.36868 31920 ft 513 kts 158°
2026-04-25 05:01 -5.22860 48.39693 31923 ft 513 kts 158°
2026-04-25 05:01 -5.29426 48.42514 31923 ft 513 kts 158°
2026-04-25 05:02 -5.36008 48.45343 31921 ft 513 kts 158°
2026-04-25 05:02 -5.42561 48.48159 31925 ft 513 kts 158°
2026-04-25 05:03 -5.49127 48.50982 31924 ft 513 kts 158°
2026-04-25 05:03 -5.55659 48.53791 31919 ft 513 kts 158°
2026-04-25 05:04 -5.62256 48.56629 31924 ft 513 kts 158°
2026-04-25 05:04 -5.68780 48.59436 31922 ft 513 kts 158°
2026-04-25 05:05 -5.75328 48.62254 31908 ft 510 kts 158°
2026-04-25 05:05 -5.81824 48.65051 31913 ft 508 kts 158°
2026-04-25 05:06 -5.88327 48.67851 31920 ft 507 kts 158°
2026-04-25 05:06 -5.94820 48.70647 31921 ft 506 kts 158°
2026-04-25 05:07 -6.01269 48.73425 31922 ft 506 kts 158°
2026-04-25 05:07 -6.07737 48.76212 31923 ft 507 kts 158°
2026-04-25 05:08 -6.14220 48.79006 31921 ft 507 kts 158°
2026-04-25 05:08 -6.20731 48.81813 31924 ft 508 kts 158°
2026-04-25 05:09 -6.27224 48.84613 31920 ft 509 kts 158°
2026-04-25 05:09 -6.33689 48.87402 31919 ft 509 kts 158°
2026-04-25 05:10 -6.40200 48.90212 31920 ft 509 kts 158°
2026-04-25 05:10 -6.46719 48.93025 31923 ft 509 kts 158°
2026-04-25 05:11 -6.53246 48.95843 31923 ft 509 kts 158°
2026-04-25 05:11 -6.59756 48.98654 31920 ft 509 kts 158°
2026-04-25 05:12 -6.69481 49.02856 31914 ft 509 kts 158°
2026-04-25 05:12 -6.76001 49.05673 31917 ft 509 kts 158°
2026-04-25 05:13 -6.82505 49.08485 31915 ft 509 kts 158°
2026-04-25 05:13 -6.89026 49.11305 31916 ft 509 kts 158°
2026-04-25 05:14 -6.95536 49.14121 31912 ft 509 kts 158°
2026-04-25 05:15 -7.05272 49.18333 31920 ft 509 kts 158°
2026-04-25 05:15 -7.11797 49.21158 31919 ft 510 kts 158°
2026-04-25 05:16 -7.18295 49.23971 31916 ft 510 kts 158°
2026-04-25 05:16 -7.24850 49.26811 31917 ft 510 kts 158°
2026-04-25 05:17 -7.31363 49.29633 31923 ft 510 kts 158°
2026-04-25 05:17 -7.37838 49.32439 31917 ft 510 kts 158°
2026-04-25 05:18 -7.44384 49.35277 31921 ft 510 kts 158°
2026-04-25 05:18 -7.50892 49.38100 31921 ft 510 kts 158°
2026-04-25 05:19 -7.57386 49.40917 31921 ft 510 kts 158°
2026-04-25 05:19 -7.63925 49.43755 31930 ft 510 kts 158°
2026-04-25 05:20 -7.70446 49.46586 31932 ft 510 kts 158°
2026-04-25 05:20 -7.76962 49.49415 31922 ft 510 kts 158°
2026-04-25 05:21 -7.83454 49.52236 31921 ft 510 kts 158°
2026-04-25 05:21 -7.89977 49.55070 31919 ft 510 kts 158°
2026-04-25 05:22 -7.96506 49.57909 31929 ft 510 kts 158°
2026-04-25 05:22 -8.03028 49.60745 31923 ft 510 kts 158°
2026-04-25 05:23 -8.09505 49.63563 31931 ft 510 kts 158°
2026-04-25 05:23 -8.16026 49.66400 31920 ft 510 kts 158°
2026-04-25 05:24 -8.22555 49.69242 31923 ft 509 kts 158°
2026-04-25 05:24 -8.29027 49.72061 31928 ft 509 kts 158°
2026-04-25 05:25 -8.35533 49.74896 31920 ft 509 kts 158°
2026-04-25 05:25 -8.42043 49.77733 31927 ft 509 kts 158°
2026-04-25 05:26 -8.48544 49.80567 31927 ft 508 kts 158°
2026-04-25 05:26 -8.55044 49.83401 31933 ft 508 kts 158°
2026-04-25 05:27 -8.61500 49.86218 31933 ft 508 kts 158°
2026-04-25 05:27 -8.67988 49.89050 31925 ft 508 kts 158°
2026-04-25 05:28 -8.74482 49.91885 31927 ft 508 kts 158°
2026-04-25 05:28 -8.80972 49.94720 31931 ft 507 kts 158°
2026-04-25 05:29 -8.87422 49.97538 31933 ft 507 kts 158°
2026-04-25 05:29 -8.93931 50.00383 31931 ft 507 kts 158°
2026-04-25 05:30 -9.00373 50.03201 31930 ft 507 kts 158°
2026-04-25 05:30 -9.06839 50.06029 31931 ft 507 kts 158°
2026-04-25 05:31 -9.13332 50.08871 31932 ft 507 kts 158°
2026-04-25 05:31 -9.19790 50.11698 31935 ft 506 kts 158°
2026-04-25 05:32 -9.26259 50.14532 31938 ft 506 kts 158°
2026-04-25 05:32 -9.32705 50.17356 31929 ft 506 kts 158°
2026-04-25 05:33 -9.39160 50.20185 31929 ft 506 kts 158°
2026-04-25 05:33 -9.45605 50.23011 31930 ft 506 kts 158°
2026-04-25 05:34 -9.52078 50.25851 31935 ft 506 kts 158°
2026-04-25 05:34 -9.58537 50.28686 31933 ft 506 kts 158°
2026-04-25 05:35 -9.65012 50.31529 31934 ft 506 kts 158°
2026-04-25 05:35 -9.71466 50.34364 31934 ft 506 kts 158°
2026-04-25 05:36 -9.77899 50.37191 31936 ft 506 kts 158°
2026-04-25 05:36 -9.84374 50.40037 31934 ft 506 kts 158°
2026-04-25 05:37 -9.90835 50.42878 31937 ft 506 kts 158°
2026-04-25 05:37 -9.97268 50.45709 31937 ft 506 kts 158°
2026-04-25 05:38 -10.03736 50.48556 31943 ft 506 kts 158°
2026-04-25 05:38 -10.10205 50.51405 31940 ft 507 kts 158°
2026-04-25 05:39 -10.16689 50.54262 31938 ft 507 kts 158°
2026-04-25 05:39 -10.23126 50.57099 31938 ft 507 kts 158°
2026-04-25 05:40 -10.29606 50.59956 31943 ft 508 kts 158°
2026-04-25 05:40 -10.36096 50.62819 31945 ft 508 kts 158°
2026-04-25 05:41 -10.42588 50.65684 31940 ft 508 kts 158°
2026-04-25 05:41 -10.49059 50.68542 31944 ft 507 kts 158°
2026-04-25 05:42 -10.55497 50.71386 31943 ft 507 kts 158°
2026-04-25 05:42 -10.61973 50.74249 31944 ft 507 kts 158°
2026-04-25 05:43 -10.68455 50.77114 31940 ft 507 kts 158°
2026-04-25 05:43 -10.74903 50.79966 31944 ft 506 kts 158°
2026-04-25 05:44 -10.81365 50.82826 31945 ft 506 kts 158°
2026-04-25 05:44 -10.87836 50.85692 31945 ft 506 kts 158°
2026-04-25 05:45 -10.94285 50.88549 31942 ft 506 kts 158°
2026-04-25 05:45 -11.00753 50.91416 31946 ft 506 kts 158°
2026-04-25 05:46 -11.07175 50.94264 31944 ft 507 kts 158°
2026-04-25 05:46 -11.13639 50.97132 31943 ft 507 kts 158°
2026-04-25 05:47 -11.20111 51.00005 31952 ft 507 kts 158°
2026-04-25 05:47 -11.25493 51.02394 31951 ft 507 kts 158°
2026-04-25 05:48 -11.31960 51.05267 31949 ft 507 kts 158°
2026-04-25 05:48 -11.38431 51.08143 31953 ft 507 kts 158°
2026-04-25 05:49 -11.44878 51.11011 31950 ft 507 kts 158°
2026-04-25 05:49 -11.51347 51.13888 31947 ft 507 kts 158°
2026-04-25 05:50 -11.57777 51.16751 31950 ft 507 kts 158°
2026-04-25 05:50 -11.64247 51.19633 31947 ft 506 kts 158°
2026-04-25 05:51 -11.70705 51.22511 31950 ft 506 kts 158°
2026-04-25 05:51 -11.77164 51.25390 31948 ft 506 kts 158°
2026-04-25 05:52 -11.83570 51.28247 31949 ft 505 kts 158°
2026-04-25 05:52 -11.90008 51.31121 31951 ft 505 kts 158°
2026-04-25 05:53 -11.96443 51.33995 31948 ft 505 kts 158°
2026-04-25 05:53 -12.02879 51.36871 31953 ft 505 kts 158°
2026-04-25 05:54 -12.09327 51.39754 31951 ft 504 kts 158°
2026-04-25 05:54 -12.18975 51.44065 31950 ft 504 kts 158°
2026-04-25 05:55 -12.25411 51.46939 31950 ft 504 kts 158°
2026-04-25 05:55 -12.31818 51.49802 31950 ft 504 kts 158°
2026-04-25 05:56 -12.38257 51.52683 31950 ft 504 kts 158°
2026-04-25 05:56 -12.44686 51.55562 31950 ft 504 kts 158°
2026-04-25 05:57 -12.51088 51.58429 31955 ft 505 kts 158°
2026-04-25 05:57 -12.57510 51.61307 31954 ft 505 kts 158°
2026-04-25 05:58 -12.63974 51.64205 31958 ft 505 kts 158°
2026-04-25 05:58 -12.70377 51.67078 31956 ft 505 kts 158°
2026-04-25 05:59 -12.76822 51.69971 31958 ft 505 kts 158°
2026-04-25 05:59 -12.83288 51.72875 31961 ft 506 kts 158°
2026-04-25 06:00 -12.89693 51.75753 31961 ft 506 kts 158°
2026-04-25 06:00 -12.96142 51.78653 31957 ft 506 kts 158°
2026-04-25 06:01 -13.02598 51.81557 31957 ft 506 kts 158°
2026-04-25 06:01 -13.09055 51.84464 31957 ft 506 kts 158°
2026-04-25 06:02 -13.15515 51.87373 31961 ft 506 kts 158°
2026-04-25 06:02 -13.21966 51.90281 31966 ft 507 kts 158°
2026-04-25 06:03 -13.28393 51.93179 31962 ft 507 kts 158°
2026-04-25 06:03 -13.34860 51.96097 31958 ft 506 kts 158°
2026-04-25 06:04 -13.41301 51.99005 31961 ft 506 kts 158°
2026-04-25 06:04 -13.47742 52.01914 31956 ft 506 kts 158°
2026-04-25 06:05 -13.54186 52.04827 31960 ft 506 kts 158°
2026-04-25 06:05 -13.60631 52.07742 31960 ft 505 kts 158°
2026-04-25 06:06 -13.67032 52.10638 31960 ft 505 kts 158°
2026-04-25 06:06 -13.73469 52.13553 31958 ft 505 kts 158°
2026-04-25 06:07 -13.79903 52.16468 31959 ft 505 kts 158°
2026-04-25 06:07 -13.86314 52.19374 31960 ft 505 kts 158°
2026-04-25 06:08 -13.92748 52.22293 31960 ft 505 kts 158°
2026-04-25 06:08 -13.99184 52.25214 31959 ft 505 kts 158°
2026-04-25 06:09 -14.05589 52.28123 31961 ft 505 kts 158°
2026-04-25 06:09 -14.12011 52.31042 31961 ft 504 kts 158°
2026-04-25 06:10 -14.18413 52.33953 31958 ft 504 kts 158°
2026-04-25 06:10 -14.24851 52.36882 31958 ft 504 kts 158°
2026-04-25 06:11 -14.31274 52.39807 31961 ft 504 kts 158°
2026-04-25 06:11 -14.37648 52.42710 31955 ft 504 kts 158°
2026-04-25 06:12 -14.44066 52.45636 31958 ft 503 kts 158°
2026-04-25 06:12 -14.50474 52.48560 31957 ft 503 kts 158°
2026-04-25 06:13 -14.56883 52.51485 31957 ft 503 kts 158°
2026-04-25 06:14 -14.66453 52.55857 31958 ft 503 kts 158°
2026-04-25 06:14 -14.72856 52.58784 31958 ft 502 kts 158°
2026-04-25 06:15 -14.79243 52.61706 31954 ft 502 kts 158°
2026-04-25 06:15 -14.85628 52.64629 31957 ft 502 kts 158°
2026-04-25 06:16 -14.92017 52.67555 31957 ft 501 kts 158°
2026-04-25 06:16 -14.98380 52.70472 31960 ft 501 kts 158°
2026-04-25 06:17 -15.04721 52.73380 31956 ft 501 kts 158°
2026-04-25 06:17 -15.11088 52.76303 31956 ft 500 kts 158°
2026-04-25 06:18 -15.17462 52.79230 31959 ft 500 kts 158°
2026-04-25 06:18 -15.23821 52.82152 31953 ft 500 kts 158°
2026-04-25 06:19 -15.30172 52.85073 31960 ft 499 kts 158°
2026-04-25 06:19 -15.36523 52.87996 31960 ft 499 kts 158°
2026-04-25 06:20 -15.42831 52.90900 31957 ft 499 kts 158°
2026-04-25 06:20 -15.49174 52.93823 31957 ft 498 kts 158°
2026-04-25 06:21 -15.55513 52.96746 31959 ft 498 kts 158°
2026-04-25 06:21 -15.61847 52.99669 31959 ft 498 kts 158°
2026-04-25 06:22 -15.68151 53.02580 31958 ft 498 kts 158°
2026-04-25 06:22 -15.74501 53.05513 31958 ft 498 kts 158°
2026-04-25 06:23 -15.80832 53.08441 31959 ft 498 kts 158°
2026-04-25 06:23 -15.87129 53.11354 31959 ft 498 kts 158°
2026-04-25 06:24 -15.93465 53.14288 31958 ft 498 kts 158°
2026-04-25 06:24 -15.99805 53.17226 31959 ft 498 kts 158°
2026-04-25 06:25 -16.06108 53.20148 31962 ft 498 kts 158°
2026-04-25 06:25 -16.12431 53.23082 31962 ft 498 kts 158°
2026-04-25 06:26 -16.18779 53.26029 31962 ft 497 kts 158°
2026-04-25 06:26 -16.25099 53.28966 31962 ft 497 kts 158°
2026-04-25 06:27 -16.31388 53.31890 31964 ft 497 kts 158°
2026-04-25 06:27 -16.37724 53.34837 31960 ft 497 kts 159°
2026-04-25 06:28 -16.44019 53.37769 31965 ft 496 kts 158°
2026-04-25 06:28 -16.50329 53.40709 31968 ft 496 kts 159°
2026-04-25 06:29 -16.56618 53.43641 31967 ft 496 kts 159°
2026-04-25 06:29 -16.62891 53.46568 31965 ft 495 kts 159°
2026-04-25 06:30 -16.69181 53.49505 31963 ft 495 kts 159°
2026-04-25 06:30 -16.75484 53.52451 31964 ft 495 kts 159°
2026-04-25 06:31 -16.81789 53.55399 31963 ft 495 kts 159°
2026-04-25 06:31 -16.88026 53.58318 31965 ft 494 kts 159°
2026-04-25 06:32 -16.94298 53.61255 31964 ft 494 kts 159°
2026-04-25 06:32 -17.00572 53.64195 31964 ft 494 kts 159°
2026-04-25 06:33 -17.06853 53.67141 31969 ft 493 kts 159°
2026-04-25 06:33 -17.13075 53.70061 31965 ft 493 kts 159°
2026-04-25 06:34 -17.19354 53.73011 31966 ft 493 kts 159°
2026-04-25 06:34 -17.25594 53.75944 31965 ft 493 kts 159°
2026-04-25 06:35 -17.31834 53.78879 31969 ft 493 kts 159°
2026-04-25 06:35 -17.38103 53.81830 31967 ft 492 kts 159°
2026-04-25 06:36 -17.44322 53.84760 31969 ft 492 kts 159°
2026-04-25 06:36 -17.49531 53.87216 31968 ft 492 kts 158°
2026-04-25 06:37 -17.56799 53.90644 31964 ft 491 kts 158°
2026-04-25 06:37 -17.62004 53.93102 31966 ft 491 kts 158°
2026-04-25 06:38 -17.68209 53.96034 31968 ft 490 kts 158°
2026-04-25 06:38 -17.74436 53.98978 31966 ft 489 kts 158°
2026-04-25 06:39 -17.80642 54.01915 31964 ft 489 kts 158°
2026-04-25 06:39 -17.86847 54.04853 31965 ft 488 kts 158°
2026-04-25 06:40 -17.93012 54.07775 31965 ft 487 kts 158°
2026-04-25 06:40 -17.99173 54.10697 31967 ft 487 kts 158°
2026-04-25 06:41 -18.05361 54.13634 31968 ft 486 kts 158°
2026-04-25 06:41 -18.11502 54.16552 31969 ft 486 kts 158°
2026-04-25 06:42 -18.17668 54.19483 31967 ft 485 kts 158°
2026-04-25 06:42 -18.23835 54.22417 31969 ft 485 kts 158°
2026-04-25 06:43 -18.29953 54.25330 31974 ft 484 kts 158°
2026-04-25 06:43 -18.36091 54.28255 31974 ft 484 kts 158°
2026-04-25 06:44 -18.42203 54.31170 31965 ft 483 kts 158°
2026-04-25 06:44 -18.48345 54.34102 31968 ft 483 kts 158°
2026-04-25 06:45 -18.54433 54.37010 31969 ft 483 kts 158°
2026-04-25 06:45 -18.60555 54.39935 31970 ft 482 kts 158°
2026-04-25 06:46 -18.66783 54.42578 31968 ft 481 kts 162°
2026-04-25 06:46 -18.73024 54.44994 31975 ft 480 kts 162°
2026-04-25 06:47 -18.79315 54.47446 31971 ft 480 kts 161°
2026-04-25 06:47 -18.85540 54.49919 31973 ft 480 kts 161°
2026-04-25 06:48 -18.91799 54.52427 31971 ft 479 kts 161°
2026-04-25 06:48 -18.98011 54.54920 31971 ft 479 kts 161°
2026-04-25 06:49 -19.04264 54.57430 31969 ft 479 kts 161°
2026-04-25 06:49 -19.10469 54.59922 31971 ft 478 kts 161°
2026-04-25 06:50 -19.16699 54.62425 31974 ft 478 kts 161°
2026-04-25 06:50 -19.22903 54.64920 31976 ft 477 kts 161°
2026-04-25 06:51 -19.29081 54.67406 31972 ft 477 kts 161°
2026-04-25 06:51 -19.35281 54.69903 31974 ft 476 kts 161°
2026-04-25 06:52 -19.41480 54.72402 31975 ft 475 kts 161°
2026-04-25 06:52 -19.47621 54.74879 31976 ft 475 kts 160°
2026-04-25 06:53 -19.53800 54.77374 31979 ft 474 kts 160°
2026-04-25 06:53 -19.59979 54.79871 31980 ft 474 kts 160°
2026-04-25 06:54 -19.66129 54.82358 31978 ft 474 kts 160°
2026-04-25 06:54 -19.72290 54.84852 31978 ft 474 kts 160°
2026-04-25 06:55 -19.78450 54.87348 31975 ft 473 kts 160°
2026-04-25 06:55 -19.84584 54.89834 31977 ft 473 kts 160°
2026-04-25 06:55 -19.87646 54.91077 31781 ft 463 kts 160°
2026-04-25 06:56 -19.90559 54.92261 31070 ft 446 kts 160°
2026-04-25 06:56 -19.93412 54.93421 30161 ft 433 kts 160°
2026-04-25 06:56 -19.96209 54.94557 28898 ft 427 kts 160°
2026-04-25 06:56 -19.98966 54.95677 27719 ft 420 kts 160°
2026-04-25 06:57 -20.01682 54.96780 26561 ft 414 kts 160°
2026-04-25 06:57 -20.04356 54.97867 25411 ft 409 kts 160°
2026-04-25 06:57 -20.07005 54.98945 24233 ft 405 kts 160°
2026-04-25 06:57 -20.09628 55.00012 22984 ft 401 kts 160°
2026-04-25 06:58 -20.12193 55.01055 21645 ft 398 kts 159°
2026-04-25 06:58 -20.14767 55.02102 20433 ft 394 kts 159°
2026-04-25 06:58 -20.17305 55.03135 19363 ft 386 kts 159°
2026-04-25 06:58 -20.19808 55.04155 18185 ft 383 kts 158°
2026-04-25 06:59 -20.22277 55.05161 17151 ft 374 kts 158°
2026-04-25 06:59 -20.24683 55.06142 16148 ft 366 kts 158°
2026-04-25 06:59 -20.27047 55.07106 14995 ft 362 kts 158°
2026-04-25 06:59 -20.29403 55.08068 13784 ft 362 kts 158°
2026-04-25 07:00 -20.31713 55.09011 12593 ft 358 kts 158°
2026-04-25 07:00 -20.34002 55.09945 11852 ft 344 kts 158°
2026-04-25 07:00 -20.36177 55.10833 11275 ft 326 kts 158°
2026-04-25 07:00 -20.38257 55.11682 10557 ft 317 kts 158°
2026-04-25 07:01 -20.40309 55.12521 10181 ft 313 kts 157°
2026-04-25 07:01 -20.42316 55.13341 10064 ft 305 kts 157°
2026-04-25 07:01 -20.44269 55.14141 9932 ft 297 kts 157°
2026-04-25 07:01 -20.46176 55.14920 9786 ft 290 kts 157°
2026-04-25 07:02 -20.48036 55.15681 9579 ft 284 kts 157°
2026-04-25 07:02 -20.49841 55.16419 9361 ft 280 kts 157°
2026-04-25 07:02 -20.51662 55.17165 9025 ft 280 kts 157°
2026-04-25 07:02 -20.53477 55.17909 8751 ft 278 kts 157°
2026-04-25 07:03 -20.55268 55.18642 8342 ft 273 kts 157°
2026-04-25 07:03 -20.57047 55.19372 7766 ft 274 kts 157°
2026-04-25 07:03 -20.58821 55.20099 7259 ft 272 kts 157°
2026-04-25 07:03 -20.60580 55.20820 6810 ft 269 kts 157°
2026-04-25 07:04 -20.62298 55.21524 6338 ft 266 kts 156°
2026-04-25 07:04 -20.64011 55.22227 6030 ft 256 kts 157°
2026-04-25 07:04 -20.65660 55.22903 6069 ft 258 kts 157°
2026-04-25 07:04 -20.67374 55.23608 6051 ft 269 kts 157°
2026-04-25 07:05 -20.69157 55.24341 5667 ft 277 kts 157°
2026-04-25 07:05 -20.70953 55.25078 5341 ft 276 kts 158°
2026-04-25 07:05 -20.72742 55.25812 5011 ft 275 kts 157°
2026-04-25 07:05 -20.74524 55.26543 4737 ft 272 kts 158°
2026-04-25 07:06 -20.76258 55.27254 4606 ft 263 kts 158°
2026-04-25 07:06 -20.77839 55.28108 4404 ft 251 kts 136°
2026-04-25 07:06 -20.78763 55.29671 4139 ft 251 kts 111°
2026-04-25 07:06 -20.79392 55.31342 3832 ft 239 kts 115°
2026-04-25 07:07 -20.80102 55.32878 3533 ft 222 kts 117°
2026-04-25 07:07 -20.80775 55.34284 3328 ft 204 kts 117°
2026-04-25 07:07 -20.81393 55.35583 3048 ft 187 kts 117°
2026-04-25 07:07 -20.81957 55.36774 2798 ft 172 kts 117°
2026-04-25 07:08 -20.82474 55.37868 2622 ft 162 kts 117°
2026-04-25 07:08 -20.82996 55.38972 2409 ft 168 kts 117°
2026-04-25 07:08 -20.83520 55.40081 2169 ft 163 kts 117°
2026-04-25 07:08 -20.84012 55.41118 1977 ft 149 kts 117°
2026-04-25 07:09 -20.84456 55.42057 1822 ft 135 kts 118°
2026-04-25 07:09 -20.84872 55.42938 1688 ft 138 kts 117°
2026-04-25 07:09 -20.85324 55.43888 1496 ft 147 kts 116°
2026-04-25 07:09 -20.85831 55.44854 1361 ft 149 kts 119°
2026-04-25 07:10 -20.86300 55.45832 1098 ft 143 kts 115°
2026-04-25 07:10 -20.86720 55.46767 821 ft 136 kts 116°
2026-04-25 07:10 -20.87148 55.47688 666 ft 143 kts 116°
2026-04-25 07:10 -20.87599 55.48656 467 ft 149 kts 116°
2026-04-25 07:11 -20.88067 55.49663 249 ft 150 kts 116°
2026-04-25 07:11 -20.88505 55.50589 56 ft 131 kts 114°
2026-04-25 07:11 -20.88856 55.51343 64 ft 85 kts 116°
2026-04-25 07:11 -20.89025 55.51705 65 ft 39 kts 116°
2026-04-25 07:12 -20.89144 55.51962 67 ft 36 kts 116°
2026-04-25 07:12 -20.89311 55.52222 69 ft 14 kts 192°
2026-04-25 07:12 -20.89402 55.52163 93 ft 15 kts 233°
2026-04-25 07:13 -20.89382 55.52076 94 ft 13 kts 298°
2026-04-25 07:13 -20.89342 55.51991 94 ft 13 kts 296°
2026-04-25 07:13 -20.89300 55.51902 93 ft 14 kts 296°
2026-04-25 07:13 -20.89257 55.51810 93 ft 14 kts 296°
2026-04-25 07:14 -20.89213 55.51716 91 ft 14 kts 296°
2026-04-25 07:14 -20.89169 55.51621 91 ft 14 kts 296°
2026-04-25 07:14 -20.89124 55.51525 88 ft 16 kts 296°
2026-04-25 07:14 -20.89076 55.51421 81 ft 10 kts 296°
2026-04-25 07:15 -20.89048 55.51362 85 ft 10 kts 297°
2026-04-25 07:15 -20.89036 55.51336 83 ft 10 kts 297°
2026-04-25 07:15 -20.89027 55.51319 85 ft 10 kts 297°
2026-04-25 07:16 -20.89021 55.51305 84 ft 10 kts 297°
2026-04-25 07:16 -20.89022 55.51271 83 ft 5 kts 242°
2026-04-25 07:16 -20.89048 55.51248 85 ft 5 kts 211°
2026-04-25 07:16 -20.89070 55.51236 84 ft 0 kts 207°